İHALESİ DEVAM EDEN HASARLI ARAÇLARIN LİSTESİ

Aşağıda sınırlı sayıda hasarlı araçlar listelenmektedir.
İhaledeki tüm araçları görüp almak istediğiniz araca teklif vermeniz için aşağıda yazılı hesaplarımızdan birine 20.000 TL teminat yatırmanız gerekmektedir.
Teminat yatırdıktan sonra araçlar teklif vermeye başlayabilirsiniz. Araç kaldıktan sonra aracın rakamına göre kapora almaktayız. Ödeme geldiğinde kaporanızı ödeyeceğiniz miktardan düşüyoruz. İsterseniz yatırdığınız teminatınızı da aldığınız araçtan düşebilirsiniz ya da teminatınız durur araç almaya devam edersiniz.
Ödeme yapılacak veya bekleyen araçlar menüsünde aracınız yoksa teminatınızı geri çekebilirsiniz.
Aldığınız aracı ödemezseniz teminatınız yanar.

 #

Model

Aracın Markası Aracın Tipi Bulunduğu Şehir Kapanış Tarihi Asgari Fiyat
1 1996 Fiat/Tofaş TİPO 1.6 SLX Manisa 5.5.2026 10:00 250 TL
2 2024 Motorsiklet ARORA AR 06 Samsun 5.5.2026 10:00 250 TL
3 2023 Motorsiklet APEC APX5 Trabzon 5.5.2026 10:00 250 TL
4 2023 Motorsiklet KANUNI RESA 125 Gaziantep 5.5.2026 10:00 250 TL
5 2023 Motorsiklet RKS SPONTINI 110 (GST110T-14) İstanbul 5.5.2026 10:00 250 TL
6 2021 Motorsiklet CFMOTO 150 NK Aydın 5.5.2026 10:00 250 TL
7 2014 Motorsiklet KTM 390 DUKE Elazığ 5.5.2026 10:00 250 TL
8 2024 Motorsiklet MONDIAL SFC MİNİ 50 Konya 5.5.2026 10:00 250 TL
9 2025 Motorsiklet MONDIAL SFC 50 Kahramanmaraş 5.5.2026 10:00 250 TL
10 2023 Motorsiklet MONDIAL 50 wing Denizli 5.5.2026 10:00 250 TL
11 2024 Motorsiklet FALCON SALVADOR 188 Çorum 5.5.2026 10:00 250 TL
12 1993 Motorsiklet HONDA KINETIC Kilis 5.5.2026 10:00 250 TL
13 2024 Motorsiklet MONDIAL EXON 50 Ankara 5.5.2026 10:00 250 TL
14 2015 Motorsiklet KYMCO PEOPLE ONE 125i Denizli 5.5.2026 10:00 250 TL
15 2014 Motorsiklet MONDIAL 100 SUPERBOY i İstanbul 5.5.2026 10:00 250 TL
16 1991 Fiat/Tofaş KARTAL 1.6 İstanbul 5.5.2026 10:30 1.000 TL
17 2021 Motorsiklet REVOLT RM5 X MAXI SCOOTER İzmir 5.5.2026 10:30 500 TL
18 2019 Motorsiklet SYM JET14 125 İstanbul 5.5.2026 10:30 500 TL
19 2024 Motorsiklet KUBA AZURE PRO 50 İstanbul 5.5.2026 10:30 250 TL
20 2022 Motorsiklet MONDIAL VULTURE İ 125 İstanbul 5.5.2026 10:30 250 TL
21 2022 Motorsiklet KUBA SPACE 50 Zonguldak 5.5.2026 10:30 500 TL
22 2024 Motorsiklet ARORA CAPPUCCINO 125 İstanbul 5.5.2026 10:30 500 TL
23 2018 Motorsiklet LIFAN DISCOVERY 150 (LF150-9J) Isparta 5.5.2026 10:30 250 TL
24 2024 Motorsiklet RKS RK 125 S Samsun 5.5.2026 10:30 500 TL
25 2024 Motorsiklet MUSATTI GLAMARO MAX 125 İstanbul 5.5.2026 10:30 500 TL
26 2023 Motorsiklet ARORA CAPPUCCINO 50 Antalya 5.5.2026 10:30 2.000 TL
27 2023 Motorsiklet KANUNI SEHA 150 Rize 5.5.2026 10:30 250 TL
28 2023 Motorsiklet RKS SPONTINI 110 (GST110T-14) İstanbul 5.5.2026 10:30 500 TL
29 2022 Motorsiklet KUBA BLUEBERRY 50 Aydın 5.5.2026 10:30 1.000 TL
30 2024 Motorsiklet APEC PS3 50 Ankara 5.5.2026 10:30 500 TL
31 2024 Motorsiklet ALTAI CARRIER 110 PRO İstanbul 5.5.2026 11:00 7.000 TL
32 2024 Motorsiklet HERO DASH 125 Bursa 5.5.2026 11:00 8.000 TL
33 2023 Motorsiklet MONDIAL AİRTİME 50CC Isparta 5.5.2026 11:00 6.000 TL
34 2024 Motorsiklet HONDA ACTIVA 125 Zonguldak 5.5.2026 11:00 3.500 TL
35 2025 Motorsiklet RKS VRS125 İzmir 5.5.2026 11:00 4.000 TL
36 2025 Motorsiklet MONDIAL 125 DRİFT L Kayseri 5.5.2026 11:00 2.500 TL
37 2023 Motorsiklet MONDIAL STRADA 125 Ankara 5.5.2026 11:00 3.000 TL
38 1999 Mitsubishi CARISMA 1.6 GL HB Denizli 5.5.2026 11:00 5.000 TL
39 2023 Motorsiklet CFMOTO 250 NK Aydın 5.5.2026 11:00 2.500 TL
40 2014 Motorsiklet KTM 200 DUKE Çanakkale 5.5.2026 11:00 7.500 TL
41 2023 Motorsiklet MONDIAL STRADA 125 Tekirdağ 5.5.2026 11:00 5.500 TL
42 2013 Motorsiklet HONDA CBR 250 R İstanbul 5.5.2026 11:00 7.500 TL
43 2001 Fiat/Tofaş SAHİN 1.6 Bingöl 5.5.2026 11:00 4.000 TL
44 2019 Motorsiklet MONDİAL MASH 125 İstanbul 5.5.2026 11:00 3.000 TL
45 2025 Motorsiklet TVS JUPITER 125 Adana 5.5.2026 11:00 2.000 TL
46 2025 Motorsiklet RKS VRS125 İstanbul 5.5.2026 11:30 22.500 TL
47 1998 Renault 19 EUROPA 1.4 RNA Diyarbakır 5.5.2026 11:30 32.000 TL
48 2023 Motorsiklet HONDA DİO Muğla 5.5.2026 11:30 34.500 TL
49 1994 Fiat/Tofaş SAHİN 1.6 Çanakkale 5.5.2026 11:30 16.500 TL
50 2025 Motorsiklet RKS FRECCIA 150 İstanbul 5.5.2026 11:30 18.500 TL
51 2024 Motorsiklet RKS M250 Mersin 5.5.2026 11:30 24.000 TL
52 2023 Motorsiklet CFMOTO 250 NK Kocaeli 5.5.2026 11:30 21.500 TL
53 2016 Skoda SUPERB STYLE 1.4 TSI ACT 150 Adana 5.5.2026 11:30 36.500 TL
54 2025 Motorsiklet KYMCO SKYTOWN 125 İstanbul 5.5.2026 11:30 27.500 TL
55 2024 Motorsiklet CFMOTO 250 NK İstanbul 5.5.2026 11:30 18.000 TL
56 1998 Fiat/Tofaş SAHIN 1.4 Bursa 5.5.2026 11:30 10.000 TL
57 1997 Skoda FELICIA 1.3 İstanbul 5.5.2026 11:30 14.500 TL
58 2012 Fiat/Tofaş DOBLO CARGO MAXI 1.3 M.JET İstanbul 5.5.2026 11:30 31.000 TL
59 2001 Renault LAGUNA 2.0 16V RXT Kahramanmaraş 5.5.2026 11:30 23.000 TL
60 2024 Motorsiklet ARORA MT 125 Ankara 5.5.2026 11:30 9.000 TL
61 1999 Fiat/Tofaş KARTAL1.6 i.e. Adana 5.5.2026 12:00 75.000 TL
62 1998 Renault 19 EUROPA Ankara 5.5.2026 12:00 44.000 TL
63 2001 Peugeot 306 PLATINUM 1.6 4 KAPI Yozgat 5.5.2026 12:00 84.000 TL
64 2016 Motorsiklet YAMAHA R25 Manisa 5.5.2026 12:00 93.500 TL
65 2021 Motorsiklet BAJAJ DOMINAR 250 Adana 5.5.2026 12:00 48.500 TL
66 2003 Fiat/Tofaş DOBLO CARGO COMBİ 1.9D Rize 5.5.2026 12:00 48.500 TL
67 1994 Fiat/Tofaş DOGAN S Çanakkale 5.5.2026 12:00 45.500 TL
68 2010 Tata XENON CIFT KABIN KAMYONET İzmir 5.5.2026 12:00 74.000 TL
69 2001 Seat IBIZA STELLA 1.6 Malatya 5.5.2026 12:00 43.500 TL
70 1999 Fiat/Tofaş TIPO 1.6 i.e. SLX Ankara 5.5.2026 12:00 44.500 TL
71 2004 Fiat/Tofaş DOBLO COMBI 1.9 JTD SX Mersin 5.5.2026 12:00 95.000 TL
72 2017 Isuzu D-MAX CIFT KABIN KAMYONET 2.5 4x4 TR 6MT Adıyaman 5.5.2026 12:00 95.500 TL
73 2015 Fiat/Tofaş LINEA ACTUAL PLUS 1.4 FIRE 77 E5 Erzurum 5.5.2026 12:00 55.000 TL
74 2008 Fiat/Tofaş DOBLO CARGO 1.3 MULTIJET ACTIVE İstanbul 5.5.2026 12:00 63.000 TL
75 2006 Opel CORSA 5 KAPI 1.2i TWINPORT ESSENTIA EASY Konya 5.5.2026 12:00 45.500 TL
76 2008 Fiat/Tofaş ALBEA SOLE 1.3 MULTİJET Konya 5.5.2026 13:30 128.000 TL
77 2025 Motorsiklet HONDA PCX 125 DX İstanbul 5.5.2026 13:30 131.000 TL
78 2007 Renault SYMBOL AUTHENTIQUE 1.5 DCI 65 Ankara 5.5.2026 13:30 139.500 TL
79 1998 Mitsubishi L300 CAMLIVAN İstanbul 5.5.2026 13:30 110.500 TL
80 2008 Renault SYMBOL 1.5 DCI EXTREME (65) Sakarya 5.5.2026 13:30 108.000 TL
81 1996 Volkswagen GOLF CL 1.8 Ankara 5.5.2026 13:30 107.500 TL
82 2000 Renault SCENIC 1.6 16V RXT OV Bursa 5.5.2026 13:30 131.000 TL
83 2007 Volkswagen CRAFTER MİNİBÜS 14+1 İstanbul 5.5.2026 13:30 127.500 TL
84 2000 Renault MEGANE RTE 1.6 Samsun 5.5.2026 13:30 110.000 TL
85 2003 Renault CLIO SYMBOL II AUTHENTQUE 1.4 İstanbul 5.5.2026 13:30 118.000 TL
86 2002 Bmw 316 ti COMPACT Kastamonu 5.5.2026 13:30 101.500 TL
87 2017 Fiat/Tofaş FIORINO CARGO 1.3 M.JET Ankara 5.5.2026 13:30 119.000 TL
88 1997 Toyota COROLLA 1.6 XEİ Erzincan 5.5.2026 13:30 101.000 TL
89 1998 Opel CORSA 1.4i 16V GLS Kocaeli 5.5.2026 13:30 95.500 TL
90 1997 Ford CARGO 2520 Mersin 5.5.2026 13:30 97.000 TL
91 2005 Fiat/Tofaş STILO 1.6 DYNAMIC 3 KAPI Ankara 5.5.2026 14:00 174.000 TL
92 2009 Fiat/Tofaş DOBLO COMBI 1.3 MULTIJET ACTIVE İstanbul 5.5.2026 14:00 209.000 TL
93 2004 Ford FIESTA 1.4 TDCi COMFORT Ankara 5.5.2026 14:00 167.000 TL
94 2006 Kia RIO 1.5 CRDI 4NB COMFORT Sakarya 5.5.2026 14:00 235.000 TL
95 2011 Skoda ROOMSTER 1.2 Ankara 5.5.2026 14:00 201.500 TL
96 2009 Renault CLIO HB EXPRESSION 1.5 DCI İstanbul 5.5.2026 14:00 200.000 TL
97 2008 Fiat/Tofaş GRANDE PUNTO 5K 1.4 FIRE (77) ACTIVE İstanbul 5.5.2026 14:00 154.000 TL
98 2010 Fiat/Tofaş ALBEA SOLE 1.3 MULTIJET ACTIVE İstanbul 5.5.2026 14:00 152.000 TL
99 2011 Hyundai i20 TROY 1.2 DOHC 78 PS TEAM İzmir 5.5.2026 14:00 210.000 TL
100 2010 Peugeot PARTNER TEPEE PREMIUM 1.6 HDI Ankara 5.5.2026 14:00 178.000 TL
101 2004 Opel VECTRA 1.6i COMFORT Antalya 5.5.2026 14:00 140.000 TL
102 2014 Peugeot 301 ACTIVE 1.6 HDI 92 İstanbul 5.5.2026 14:00 172.500 TL
103 2016 Volkswagen POLO 1.2 TSI BMT 90 DSG ALLSTAR İstanbul 5.5.2026 14:00 146.000 TL
104 2017 Suzuki BALENO 1.2 TECHNO AT İstanbul 5.5.2026 14:00 164.000 TL
105 2020 Renault MEGANE SEDAN JOY 1.3 TCE 140 Ankara 5.5.2026 14:00 232.500 TL
106 2017 Ford TOURNEO CUSTOM 2.0 8+1 Adana 5.5.2026 14:30 350.000 TL
107 2012 Ford TRANSIT 300 S KOMBI VAN Ankara 5.5.2026 14:30 297.500 TL
108 2015 Dacia SANDERO STEPWAY 1.5 DCI 90 Ankara 5.5.2026 14:30 328.500 TL
109 2013 Hyundai ACCENT BLUE 1.4 CVVT MODE PLUS OV Ankara 5.5.2026 14:30 334.000 TL
110 2010 Opel CORSA 5 KAPI 1.2i TWINPORT ESSENTIA Ankara 5.5.2026 14:30 335.000 TL
111 2012 Renault MEGANE HB TOUCH 1.6 16V 110 İstanbul 5.5.2026 14:30 250.000 TL
112 2010 Peugeot 207 1.4 (75) MILLESIM 5 KAPI İstanbul 5.5.2026 14:30 252.500 TL
113 2021 Fiat/Tofaş EGEA SEDAN EASY 1.4 FIRE 95 Ankara 5.5.2026 14:30 236.500 TL
114 2018 Renault KANGOO MULTIX JOY 1.5 DCI 90 E5 İstanbul 5.5.2026 14:30 261.000 TL
115 2015 Dacia LODGY LAUREATE 1.5 DCI 90 7 KISILIK İstanbul 5.5.2026 14:30 293.000 TL
116 2009 Ford FOCUS 1.6 HB TITANIUM İstanbul 5.5.2026 14:30 337.500 TL
117 2012 Nissan X-TRAIL 2.0 DCI PLATINUM 4WD OV İstanbul 5.5.2026 14:30 337.500 TL
118 2004 Mercedes CEKICI 1840 LS Bursa 5.5.2026 14:30 303.500 TL
119 2016 Toyota HILUX 2.4 4x4 ACTIVE CIFT KABIN KAMYONET İstanbul 5.5.2026 14:30 310.500 TL
120 2024 Volkswagen CRAFTER PANELVAN 2+1 LWB HR 140 3.5T COMFORT Ankara 5.5.2026 14:30 346.000 TL
121 2007 Honda JAZZ 1.4 LS CVT İstanbul 5.5.2026 15:00 438.500 TL
122 1998 Mercedes E 200 2.0 AVANGARDE Ankara 5.5.2026 15:00 415.000 TL
123 2012 Hyundai i20 1.4 CVVT SENSE OV İstanbul 5.5.2026 15:00 409.500 TL
124 2016 Hyundai i20 1.2 MPI STYLE PANORAMA Sakarya 5.5.2026 15:00 392.500 TL
125 2011 Mercedes VITO MINIBUS MN328 113 CDI (8+1) İstanbul 5.5.2026 15:00 455.000 TL
126 2025 Ford TRANSIT COURIER VAN 1.5 D 100 TREND İstanbul 5.5.2026 15:00 508.000 TL
127 2012 Volkswagen POLO 1.6 TDI COMFORTLINE (90) Ankara 5.5.2026 15:00 504.500 TL
128 2015 Ford TOURNEO COURIER KOMBI 1.6 TDCI 95 DELUX İstanbul 5.5.2026 15:00 423.500 TL
129 2015 Dacia SANDERO STEPWAY 1.5 DCI 90 EURO5 İstanbul 5.5.2026 15:00 373.000 TL
130 2018 Ford CARGO 1842 T Ankara 5.5.2026 15:00 540.000 TL
131 2016 Iveco 70C15 KAMYON Diyarbakır 5.5.2026 15:00 418.500 TL
132 2024 Kia BONGO KAMYONET Şanlıurfa 5.5.2026 15:00 404.500 TL
133 2025 Toyota PROACE CITY 1.5 D 130 DREAM A/T Ankara 5.5.2026 15:00 462.500 TL
134 2015 Bmc CEKICI PRO 1144 ACX 4x2 E5 Ankara 5.5.2026 15:00 430.000 TL
135 2012 Opel INSIGNIA HB COSMO 2.8 (260) 4x4 OV İstanbul 5.5.2026 15:00 485.000 TL
136 2012 Mercedes CEKICI ACTROS 1844 LS E5 Hatay 5.5.2026 15:15 824.500 TL
137 2024 Renault MEGANE SEDAN 1.3 TCE Adana 5.5.2026 15:15 1.146.500 TL
138 2017 Toyota COROLLA 1.6 SEDAN Uşak 5.5.2026 15:15 810.000 TL
139 2010 Renault MEGANE SEDAN 1.5 DCI İzmir 5.5.2026 15:15 211.000 TL
140 2020 Hyundai i20 1.4 MPI İstanbul 5.5.2026 15:15 715.000 TL
141 2024 Honda HR-V 1.5 EHEV Adana 5.5.2026 15:15 1.376.000 TL
142 2025 Volkswagen TAIGO 1.0 TSI İstanbul 5.5.2026 15:15 1.256.000 TL
143 2015 Mercedes C 200 D İstanbul 5.5.2026 15:15 1.200.000 TL
144 2025 Opel CORSA 1.2 İstanbul 5.5.2026 15:15 921.500 TL
145 2024 Cupra ATECA 1.5 TSI İzmir 5.5.2026 15:15 1.655.000 TL
146 2015 Renault FLUENCE 1.5 DCI Ankara 5.5.2026 15:15 117.000 TL
147 2018 Volkswagen TIGUAN 1.4 TSI Samsun 5.5.2026 15:15 38.000 TL
148 2014 Fiat/Tofaş PUNTO 1.4 Ankara 5.5.2026 15:15 1.000 TL
149 2021 Renault MEGANE SEDAN JOY 1.3 TCE İstanbul 5.5.2026 15:15 500 TL
150 2019 Skoda SUPERB 1.6 TDI Mersin 5.5.2026 15:15 811.300 TL
151 2019 Skoda SUPERB 1.6 TDI Mersin 5.5.2026 15:15 811.300 TL
152 2021 Renault MEGANE SEDAN JOY 1.3 TCE İstanbul 5.5.2026 15:15 500 TL
153 2014 Fiat/Tofaş PUNTO 1.4 Ankara 5.5.2026 15:15 1.000 TL
154 2018 Volkswagen TIGUAN 1.4 TSI Samsun 5.5.2026 15:15 38.000 TL
155 2015 Renault FLUENCE 1.5 DCI Ankara 5.5.2026 15:15 117.000 TL
156 2024 Cupra ATECA 1.5 TSI İzmir 5.5.2026 15:15 1.655.000 TL
157 2025 Opel CORSA 1.2 İstanbul 5.5.2026 15:15 921.500 TL
158 2015 Mercedes C 200 D İstanbul 5.5.2026 15:15 1.200.000 TL
159 2025 Volkswagen TAIGO 1.0 TSI İstanbul 5.5.2026 15:15 1.256.000 TL
160 2024 Honda HR-V 1.5 EHEV Adana 5.5.2026 15:15 1.376.000 TL
161 2020 Hyundai i20 1.4 MPI İstanbul 5.5.2026 15:15 715.000 TL
162 2010 Renault MEGANE SEDAN 1.5 DCI İzmir 5.5.2026 15:15 211.000 TL
163 2017 Mercedes C 200 d İstanbul 5.5.2026 15:15 1.520.500 TL
164 2025 Toyota C-HR 1.8 HYBRID Ankara 5.5.2026 15:15 1.156.000 TL
165 2020 Renault MEGANE SEDAN JOY 1.3 TCE İzmir 5.5.2026 15:15 1.000 TL
166 2015 Dacia DUSTER 1,5 DCİ Muğla 5.5.2026 15:15 1.000 TL
167 2025 Renault CLIO 1,0 TCe Tekirdağ 5.5.2026 15:15 1.000 TL
168 2005 Ford FOCUS 1.6 Ankara 5.5.2026 15:15 38.000 TL
169 2017 Citroen C-ELYSEE 1.6 HDI Mardin 5.5.2026 15:15 200.000 TL
170 2024 Nissan JUKE 1.0 DIG-T Ankara 5.5.2026 15:15 1.000 TL
171 2011 Volkswagen JETTA 1.6 TDI İstanbul 5.5.2026 15:15 1.000 TL
172 2017 Ford MONDEO 1.5 ECOBOOST SW Mersin 5.5.2026 15:15 1.000 TL
173 2024 Hyundai TUCSON 1.6 CRDI Ankara 5.5.2026 15:15 1.000 TL
174 2020 Renault CLIO 1.3 TCE Trabzon 5.5.2026 15:15 1.000 TL
175 2021 Toyota COROLLA 1.5 SEDAN Ankara 5.5.2026 15:15 1.000 TL
176 2016 Volkswagen TIGUAN 1.4 TSI Kayseri 5.5.2026 15:15 1.000 TL
177 2009 Ford FUSION 1.4 TDCİ COMFORT Uşak 5.5.2026 15:15 1.000 TL
178 2020 Mini COOPER 3 KAPI 1.5 İstanbul 5.5.2026 15:15 1.000 TL
179 2024 Man TGE 3.180 PANELVAN İzmir 5.5.2026 15:15 1.000 TL
180 2011 Mazda MAZDA 3 SEDAN IMPRESSIVE 1.6 (105) OV Antalya 5.5.2026 15:30 1.000 TL
181 2023 Volkswagen T-ROC 1.5 TSI Balıkesir 5.5.2026 15:30 1.000 TL
182 2022 Opel CROSSLAND 1.2 İstanbul 5.5.2026 15:30 1.000 TL
183 1994 Bmw 318i STANDART İstanbul 5.5.2026 15:30 1.000 TL
184 2008 Honda CIVIC SEDAN 1.6 DREAM OV (Y) Malatya 5.5.2026 15:30 1.000 TL
185 2023 Opel VIVARO CARGO 2.0 145 DIZEL XL Ankara 5.5.2026 15:30 1.000 TL
186 2016 Mercedes VITO 119 CDI Select Erzurum 5.5.2026 15:30 1.000 TL
187 1999 Hyundai H 100 CAMLIVAN DLX 2.5 Kayseri 5.5.2026 15:30 1.000 TL
188 2004 Fiat/Tofaş DOBLO 1.9 Mersin 5.5.2026 15:30 1.000 TL
189 2023 Motorsiklet 250 DUKE ABS İstanbul 5.5.2026 15:30 1.000 TL
190 2014 Volvo ÇEKİCİ FH Mardin 5.5.2026 15:30 1.000 TL
191 2016 Isuzu D-MAX CIFT KABIN KAMYONET 2.5 4X4 TR 6MT Tokat 5.5.2026 15:30 1.000 TL
192 2018 Ford TR.TEK K.KAMYONET ECOBLUE 350 M TREND KASALI Niğde 5.5.2026 15:30 1.000 TL
193 2012 Geely EMGRAND EC7 SEDAN 1.5 PREMIUM SR Antalya 5.5.2026 15:30 1.000 TL
194 2019 Fiat/Tofaş EGEA EASY 1.4 FIRE İstanbul 5.5.2026 15:30 1.000 TL
195 2006 Volkswagen CADDY COMBI 1.9 TDI DSG İstanbul 5.5.2026 15:30 1.000 TL
196 1994 Fiat/Tofaş TEMPRA S İstanbul 5.5.2026 15:30 1.000 TL
197 1996 Renault 21 MANAGER 2000 Ankara 5.5.2026 15:30 1.000 TL
198 2011 Renault SYMBOL EXPRESSION 1.5 DCI 65 Ordu 5.5.2026 15:30 1.000 TL
199 2024 Peugeot 3008 ALLURE 1.5 BLUEHDI 130 EAT8 İstanbul 5.5.2026 15:30 1.000 TL
200 2019 Ford TOURNEO COURIER KOMBI 1.5TDCI 75 MCA E6 TREND Manisa 5.5.2026 15:30 1.000 TL
201 2021 Renault CLIO JOY 1.0 TCE X-TRONIC 90 Tekirdağ 5.5.2026 15:30 1.000 TL
202 2012 Dacia LOGAN VAN 1.5 DCİ İstanbul 5.5.2026 15:30 1.000 TL
203 2022 Bmw 520i SEDAN 1.6 Sakarya 5.5.2026 15:30 1.000 TL
204 2014 Renault TRAFIC PANELVAN GRAND CONFORT 6M3 2.0 DCI 115 Afyonkarahisar 5.5.2026 15:30 1.000 TL
205 2024 Fiat/Tofaş FIORINO COMBI POP 1.3 M.JET 95 E6D FINAL Sakarya 5.5.2026 15:30 1.000 TL
206 2020 Motorsiklet 44 LOYAL 50 Balıkesir 5.5.2026 15:30 1.000 TL
207 2004 Fiat/Tofaş DOBLO AC 1.9 JTD Konya 5.5.2026 15:30 1.000 TL
208 2000 Renault CLIO 1.4i RTA Trabzon 5.5.2026 15:30 1.000 TL
209 2023 Motorsiklet UAG 100 Muğla 5.5.2026 15:30 1.000 TL
210 2015 Honda PCX 125 Sakarya 5.5.2026 15:30 1.000 TL
211 2022 Toyota HILUX 2.4 D-4D 150 HI-CRUISER A/T İstanbul 5.5.2026 15:30 1.000 TL
212 2014 Man CEKICI TGS 18.400 Ankara 5.5.2026 15:30 1.000 TL
213 2013 Mercedes B 180 BLUEFFIENCY 1.6 ELITE Kocaeli 5.5.2026 15:30 1.000 TL
214 2022 Opel COMBO CARGO 1.5 DIZEL 102 ELEGANCE XL Tekirdağ 5.5.2026 15:30 1.000 TL
215 2017 Audi A6 SEDAN 2.0 TDI QUATTRO Antalya 5.5.2026 15:30 1.000 TL
216 2025 Skoda OCTAVIA PRESTIGE 1.5 TSI MHEV 150 DSG FL İstanbul 5.5.2026 15:30 1.000 TL
217 2004 Volkswagen PASSAT 1.6 TRENDLINE Gaziantep 5.5.2026 15:30 1.000 TL
218 2023 Motorsiklet RC 390 İstanbul 5.5.2026 15:30 1.000 TL
219 1997 Renault LAGUNA 2.0 RTİ Bursa 5.5.2026 15:30 1.000 TL
220 1998 Hyundai ACCENT 1.3 LS Ankara 5.5.2026 15:30 1.000 TL
221 1979 Chevrolet SİLVERADO Tekirdağ 5.5.2026 15:30 1.000 TL
222 2024 Hyundai i20 FL 1.0 T 100 JUMP DCT İstanbul 5.5.2026 15:30 1.000 TL
223 2015 Dacia LODGY LAUREATE 1.5 DCI 90 5 KISILIK Bursa 5.5.2026 15:30 1.000 TL
224 2006 Renault MEGANE II SEDAN DYNAMIQUE 1.5 DCI Mersin 5.5.2026 15:30 1.000 TL
225 2022 Renault MEGANE SEDAN ICON 1.5 BLUEDCI EDC 115 FAZ2 Konya 5.5.2026 15:30 1.000 TL
226 1995 Fiat/Tofaş KARTAL 1.6 Kocaeli 5.5.2026 15:30 1.000 TL
227 2014 Renault CLIO HB ICON 1.5 DCI 90 S&S Kayseri 5.5.2026 15:30 1.000 TL
228 2025 Skoda OCTAVIA ELITE 1.5 TSI MHEV 150 DSG FL İstanbul 5.5.2026 15:30 1.000 TL
229 2019 Seat IBIZA 1.0 ECOTSI 115 DSG S&S STYLE İstanbul 5.5.2026 15:30 1.000 TL
230 2008 Ford KAMYON CARGO 3235 S (8x2) Mersin 5.5.2026 15:30 1.000 TL
231 2012 Fiat/Tofaş PUNTO POP 1.3 MULTIJET (75) Erzincan 5.5.2026 15:30 1.000 TL
232 2011 Peugeot 3008 ALLURE 1.6 HDI (112) Ankara 5.5.2026 15:30 1.000 TL
233 2007 Volkswagen PASSAT COMFORTLINE 2.0 TDI (170) TIPTRONIC DSG Adana 5.5.2026 15:30 1.000 TL
234 2024 Honda SCV125 İstanbul 5.5.2026 15:30 1.000 TL
235 2022 Toyota PROACE CITY 1.5 D 130 FLAME X-PACK A T İstanbul 5.5.2026 15:30 1.000 TL
236 2024 Honda CITY 4D 1.5 EXECUTIVE AT İzmir 5.5.2026 15:30 1.000 TL
237 2014 Ford FOCUS III MCA STYLE 1.6 125 4K İzmir 5.5.2026 15:30 1.000 TL
238 2012 Chevrolet CRUZE HB 1.6 16V LT OV (124) Adıyaman 5.5.2026 15:30 1.000 TL
239 2025 Togg T10X V2 RWD UZUN MENZIL 160KW Konya 5.5.2026 15:30 1.000 TL
240 2014 Volkswagen PASSAT 2.0 TDI BMT 140 COMFORTLINE TIPT İstanbul 5.5.2026 15:30 1.000 TL
241 1994 Fiat/Tofaş DOGAN S Sakarya 5.5.2026 15:30 1.000 TL
242 2012 Honda CR-V 2.0 EXECUTIVE OV Samsun 5.5.2026 15:30 1.000 TL
243 2015 Volkswagen CC 1.4 TSI Kahramanmaraş 5.5.2026 15:30 1.000 TL
244 2009 Hyundai GETZ 1.4 START Ankara 5.5.2026 15:30 1.000 TL
245 2014 Bmw i8 PREMIUM TECHNO Bursa 5.5.2026 15:30 1.000 TL
246 2016 Volvo XC60 2.0 D4 (190) ADVANCE GEARTRONIC Batman 5.5.2026 15:30 1.000 TL
247 2025 Renault MEGANE SEDAN ICON 1.3 TCE EDC 140 FAZ2 Muğla 5.5.2026 15:30 1.000 TL
248 2025 Byd SEAL U DM-i Samsun 5.5.2026 15:30 1.000 TL
249 2023 Tesla MODEL Y LONG RANGE İstanbul 5.5.2026 15:30 1.000 TL
250 2023 Motorsiklet FURY 110 Manisa 5.5.2026 15:30 1.000 TL
251 2022 Ford TOURNEO COURIER KOMBI 1.5 TDCI İzmir 5.5.2026 15:30 1.000 TL
252 2025 Togg T10X Samsun 5.5.2026 15:30 1.000 TL
253 2017 Man TGS 41.500 8X4 BB Denizli 5.5.2026 15:30 1.000 TL
254 2025 Scania CEKICI R560 Bursa 5.5.2026 15:30 1.000 TL
255 2026 Dorse/Römork KASSBOHRER YARI RÖMORK Kayseri 5.5.2026 15:30 1.000 TL
256 2024 Dorse/Römork AKÇAVUŞOĞLU YARI RÖMORK Diyarbakır 5.5.2026 15:30 1.000 TL
257 2024 Toyota C-HR 1.8 HYBRID İstanbul 5.5.2026 15:30 1.000 TL
258 2025 Motorsiklet BLUEBIRD PRO 50 Antalya 5.5.2026 15:30 1.000 TL
259 2016 Fiat/Tofaş EGEA SEDAN EASY 1.3 M.JET Uşak 5.5.2026 15:30 1.000 TL
260 2020 Dacia DOKKER COMBI AMBIANCE 1.5 BLUEDCi Ankara 5.5.2026 15:30 1.000 TL
261 2023 Motorsiklet FURY 110i Manisa 5.5.2026 15:30 1.000 TL
262 2022 Fiat/Tofaş DOBLO CARGO MAXI 1.6 M.JET Ankara 5.5.2026 15:30 1.000 TL
263 1994 Fiat/Tofaş DOGAN SL Antalya 5.5.2026 15:30 1.000 TL
264 2005 Peugeot 206 X-DESIGN 1.4 HDi İzmir 5.5.2026 15:30 1.000 TL
265 1998 Proton PROTON 1.5 Şehir Seç 5.5.2026 15:30 1.000 TL
266 2013 Opel ASTRA SEDAN 1.3 CDTI Bartın 5.5.2026 15:30 1.000 TL
267 2016 Opel INSIGNIA NB 1.6D Diyarbakır 5.5.2026 15:30 1.000 TL
268 2023 Motorsiklet SRK 125 R Ankara 5.5.2026 15:30 1.000 TL
269 1997 Skoda PICK UP 1.3 LX Kayseri 5.5.2026 15:30 1.000 TL
270 2020 Honda ACTIVA S 125 Ankara 5.5.2026 15:30 1.000 TL
271 2016 Fiat/Tofaş EGEA 1,6 MULTİJET Bursa 5.5.2026 15:30 1.000 TL
272 2016 Kia RIO 1.4 CRDİ İstanbul 5.5.2026 15:30 1.000 TL
273 2016 Toyota HILUX 2.4 Tokat 5.5.2026 15:30 1.000 TL
274 2021 Honda PCX 125 İstanbul 5.5.2026 15:30 1.000 TL
275 2005 Renault CLIO 1,5 DCİ İstanbul 5.5.2026 15:30 1.000 TL
276 1999 Volkswagen BORA 1.6 COMFORTLINE Sakarya 5.5.2026 15:30 1.000 TL
277 2024 Motorsiklet PS5 125 Kocaeli 5.5.2026 15:30 1.000 TL
278 2024 Motorsiklet RACE 125 İstanbul 5.5.2026 15:30 1.000 TL
279 2016 Renault MEGANE SEDAN 1.5 DCI Mersin 5.5.2026 15:30 1.000 TL
280 2022 Motorsiklet JUPITER 110 Şehir Seç 5.5.2026 15:30 1.000 TL
281 2013 Ford CMAX 1.6 TDCi Balıkesir 5.5.2026 15:30 1.000 TL
282 2014 Volkswagen POLO 1.4 TDI Mersin 5.5.2026 15:30 1.000 TL
283 2014 Fiat/Tofaş FIORINO COMBI 1.3 M.JET Gaziantep 5.5.2026 15:30 1.000 TL
284 1991 Renault 12 TSW TOROS Manisa 5.5.2026 15:30 1.000 TL
285 2008 Honda CITY 1.4 ELITE İzmir 5.5.2026 15:30 1.000 TL
286 2006 Mercedes C 180 K Ankara 5.5.2026 15:30 1.000 TL
287 2025 Opel CORSA 1.2 100 Denizli 5.5.2026 15:30 1.000 TL
288 2011 Fiat/Tofaş LINEA 1.3 MULTIJET Erzincan 5.5.2026 15:30 1.000 TL
289 2004 Bmw 530 D Ankara 5.5.2026 15:30 1.000 TL
290 1994 Fiat/Tofaş ŞAHİN 1.6 Erzurum 5.5.2026 15:30 1.000 TL
291 2023 Peugeot EXPERT TRAVELLER 2.0 BLUEHDI Hatay 5.5.2026 15:30 1.000 TL
292 2012 Scania CEKICI G420 Kocaeli 5.5.2026 15:30 1.000 TL
293 2025 Fiat/Tofaş DOBLO CARGO MAXI 1.5 BLUEHDI Bursa 5.5.2026 15:30 1.000 TL
294 2017 Kia BONGO K2500 CIFT TEKER KAMYONET Balıkesir 5.5.2026 15:30 1.000 TL
295 2011 Volkswagen PASSAT 1.4 TSI Bursa 5.5.2026 15:30 1.000 TL
296 2019 Mitsubishi FUSO CANTER 8BL KAMYON İzmir 5.5.2026 15:30 1.000 TL
297 2026 Renault AUSTRAL 1.3 İstanbul 5.5.2026 15:30 1.000 TL
298 2023 Scania CEKICI S540 Kayseri 5.5.2026 15:30 1.000 TL
299 2025 Byd SEAL UDM-İ Diyarbakır 5.5.2026 15:30 1.000 TL
300 2018 Dorse/Römork HİDRO-HAS DAMPERLİ YARI RÖMORK Samsun 5.5.2026 15:30 1.000 TL
301 2018 Renault MEGANE SEDAN 1.5 DCI Hatay 5.5.2026 15:30 1.000 TL
302 2023 Dorse/Römork TENTELİ YARI RÖMORK Kayseri 5.5.2026 15:30 1.000 TL
303 2023 Motorsiklet NEW LIGHT PRO(GST125T-16) Hatay 5.5.2026 15:30 1.000 TL
304 2016 Peugeot 2008 1.6 E-HDI Ankara 5.5.2026 15:30 1.000 TL
305 2023 Peugeot 2008 1.5 BLUEHDI Hatay 5.5.2026 15:30 1.000 TL
306 2004 Ford TRANSIT 280S Antalya 5.5.2026 15:30 1.000 TL
307 2013 Volkswagen JETTA 1.6 TDI Ankara 5.5.2026 15:30 1.000 TL
308 2024 Dacia DUSTER 1.3TCE Denizli 5.5.2026 15:30 1.000 TL
309 2023 Motorsiklet GP 250 Ankara 5.5.2026 15:30 1.000 TL
310 2003 Opel CORSA 1.7 DTI İstanbul 5.5.2026 15:30 1.000 TL
311 2021 Peugeot 2008 1.5 BLUEHDI Muğla 5.5.2026 15:30 1.000 TL
312 2006 Citroen BERLİNGO 2.0 HDI Karaman 5.5.2026 15:30 1.000 TL
313 2018 Renault MEGANE 1,6 Ankara 5.5.2026 15:30 1.000 TL
314 1987 Fiat/Tofaş DOĞAN 1.6 Konya 5.5.2026 15:30 1.000 TL
315 1991 Opel VECTRA 2.0 GL Afyonkarahisar 5.5.2026 15:30 1.000 TL
316 2018 Peugeot PARTNER TEPEE 1.6 BLUEHDI Eskişehir 5.5.2026 15:30 1.000 TL
317 2017 Nissan MC QASHQAI 1.2 DIG-T X-TRONIC TEKNA Erzurum 5.5.2026 15:30 1.000 TL
318 1999 Renault MEGANE COUPE 1.6e Kocaeli 5.5.2026 15:30 1.000 TL
319 1992 Renault L423 Aydın 5.5.2026 15:30 1.000 TL
320 1994 Fiat/Tofaş DOĞAN SLX Mardin 5.5.2026 15:30 1.000 TL
321 2023 Peugeot 2008 1.5 BLUEHDI Hatay 5.5.2026 15:30 1.000 TL
322 2016 Peugeot 2008 1.6 E-HDI Ankara 5.5.2026 15:30 1.000 TL
323 2023 Motorsiklet NEW LIGHT PRO(GST125T-16) Hatay 5.5.2026 15:30 1.000 TL
324 2021 Peugeot 2008 1.5 BLUEHDI Muğla 5.5.2026 15:30 1.000 TL
325 2003 Opel CORSA 1.7 DTI İstanbul 5.5.2026 15:30 1.000 TL
326 2023 Motorsiklet GP 250 Ankara 5.5.2026 15:30 1.000 TL
327 2024 Dacia DUSTER 1.3TCE Denizli 5.5.2026 15:30 1.000 TL
328 2013 Volkswagen JETTA 1.6 TDI Ankara 5.5.2026 15:30 1.000 TL
329 2004 Ford TRANSIT 280S Antalya 5.5.2026 15:30 1.000 TL
330 1999 Renault MEGANE COUPE 1.6e Kocaeli 5.5.2026 15:30 1.000 TL
331 2017 Nissan MC QASHQAI 1.2 DIG-T X-TRONIC TEKNA Erzurum 5.5.2026 15:30 1.000 TL
332 1994 Fiat/Tofaş DOĞAN SLX Mardin 5.5.2026 15:30 1.000 TL
333 2018 Peugeot PARTNER TEPEE 1.6 BLUEHDI Eskişehir 5.5.2026 15:30 1.000 TL
334 1991 Opel VECTRA 2.0 GL Afyonkarahisar 5.5.2026 15:30 1.000 TL
335 1987 Fiat/Tofaş DOĞAN 1.6 Konya 5.5.2026 15:30 1.000 TL
336 2018 Renault MEGANE 1,6 Ankara 5.5.2026 15:30 1.000 TL
337 2006 Citroen BERLİNGO 2.0 HDI Karaman 5.5.2026 15:30 1.000 TL
338 1992 Renault L423 Aydın 5.5.2026 15:30 1.000 TL
339 2010 Fiat/Tofaş FIORINO COMBI 1.3 MULTIJET Malatya 5.5.2026 15:30 1.000 TL
340 2015 Bmw X5 XDRIVE 25d Düzce 5.5.2026 15:30 1.000 TL
341 2008 Skoda ROOMSTER 1.4 TDI İzmir 5.5.2026 15:30 1.000 TL
342 1993 Skoda FAVORIT LX Bursa 5.5.2026 15:30 1.000 TL
343 2015 Motorsiklet Z300 Şanlıurfa 5.5.2026 15:30 1.000 TL
344 2009 Peugeot BOXER VAN 435 L4H2 2.2 HDI Sakarya 5.5.2026 15:30 1.000 TL
345 2023 Opel CORSA-E Kocaeli 5.5.2026 15:30 1.000 TL
346 1995 Fiat/Tofaş DOGAN S 1.6 Erzurum 5.5.2026 15:30 1.000 TL
347 2004 Ford TRANSIT KAMYONET Ankara 5.5.2026 15:30 1.000 TL
348 2004 Dacia 1.9 D CIFT KABIN KAMYONET Trabzon 5.5.2026 15:30 1.000 TL
349 2020 Ford TOURNEO COURIER KOMBI 1.5TDCI Trabzon 5.5.2026 15:30 1.000 TL
350 2010 Opel INSIGNIA NB COSMO 1.6 Şehir Seç 5.5.2026 15:30 1.000 TL
351 2023 Honda PCX 125 Aydın 5.5.2026 15:30 1.000 TL
352 2023 Fiat/Tofaş FIORINO COMBI 1.3 M.JET İstanbul 5.5.2026 15:30 1.000 TL
353 2014 Opel MOKKA 1.4 Muğla 5.5.2026 15:30 1.000 TL
354 2016 Ford FOCUS SEDAN 1.6 TDCI İstanbul 5.5.2026 15:30 1.000 TL
355 1993 Skoda PICK UP 1.3 LX Osmaniye 5.5.2026 15:30 1.000 TL
356 2024 Motorsiklet AROME 125 PRO Şehir Seç 5.5.2026 15:30 1.000 TL
357 2024 Motorsiklet R250 Kocaeli 5.5.2026 15:30 1.000 TL
358 2025 Motorsiklet FRECCIA 150 İstanbul 5.5.2026 15:30 1.000 TL
359 2001 Ford FOCUS 1.6İ AMBIENTE SEDAN Erzurum 5.5.2026 15:30 1.000 TL
360 2000 Fiat/Tofaş DOGAN 1.6 İ.E. Karaman 5.5.2026 15:30 1.000 TL
361 2023 Motorsiklet SRK 400RR İzmir 5.5.2026 15:30 1.000 TL
362 2016 Peugeot 208 1.6 BLUEHDI Şanlıurfa 5.5.2026 15:30 1.000 TL
363 1990 Renault L423 Şehir Seç 5.5.2026 15:30 1.000 TL
364 2024 Motorsiklet 250 SR Şehir Seç 5.5.2026 15:30 1.000 TL
365 1996 Skoda FELICIA Şehir Seç 5.5.2026 15:30 1.000 TL
366 2024 Opel CROSSLAND 1.2 130 Kayseri 5.5.2026 15:30 1.000 TL
367 2005 Opel ASTRA HB 1.3 CDTi (90) Bilecik 5.5.2026 15:30 1.000 TL
368 2020 Jeep RENEGADE 1.6 M.JET Antalya 5.5.2026 15:30 1.000 TL
369 2024 Motorsiklet FRECCIA 150 Şehir Seç 5.5.2026 15:30 1.000 TL
370 2023 Hyundai H100 KAMYONET 2.5 CRDI Ankara 5.5.2026 15:30 1.000 TL
371 2023 Renault MEGANE SEDAN 1.3 TCE İzmir 5.5.2026 15:30 1.000 TL
372 1992 Fiat/Tofaş ŞAHİN 1.6 Muğla 5.5.2026 15:30 1.000 TL
373 2024 Honda CB750 HORNET İzmir 5.5.2026 15:30 1.000 TL
374 1993 Lada SAMARA 1.5 Gaziantep 5.5.2026 15:30 1.000 TL
375 2022 Toyota COROLLA 1.5 SEDAN Adana 5.5.2026 15:30 1.000 TL
376 2023 Skoda OCTAVIA 1.0 TSI e-TEC İstanbul 5.5.2026 15:30 1.000 TL
377 2016 Ford TOURNEO COURIER KOMBI 1.5 TDCI Iğdır 5.5.2026 15:30 1.000 TL
378 1996 Renault R19 EUROPA 1.4 Şehir Seç 5.5.2026 15:30 1.000 TL
379 2025 Ford TOURNEO COURIER 1.0 Muğla 5.5.2026 15:30 1.000 TL
380 1996 Fiat/Tofaş KARTAL 1.6 Konya 5.5.2026 15:30 1.000 TL
381 2023 Renault MEGANE 1.3 TCE Şehir Seç 5.5.2026 15:30 1.000 TL
382 2023 Motorsiklet DASH 125 Şehir Seç 5.5.2026 15:30 1.000 TL
383 2000 Bmc LEVEND KAMYONET Hatay 5.5.2026 15:30 1.000 TL
384 2022 Porsche TAYCAN 4 CROSS TURISMO Ankara 5.5.2026 15:30 1.000 TL
385 2024 Motorsiklet 125 DRIFT L Tekirdağ 5.5.2026 15:30 1.000 TL
386 1992 Fiat/Tofaş SAHIN 1.6 Konya 5.5.2026 15:30 1.000 TL
387 2025 Motorsiklet 250 SR Hatay 5.5.2026 15:30 1.000 TL
388 2012 Toyota COROLLA SEDAN 1.33 Antalya 5.5.2026 15:30 1.000 TL
389 2000 Honda CIVIC 1.6 iES İstanbul 5.5.2026 15:30 1.000 TL
390 2023 Motorsiklet CAPUCCINO 125 Şehir Seç 5.5.2026 15:30 1.000 TL
391 2017 Honda CIVIC SEDAN 1.6 (125) OV Erzurum 5.5.2026 15:30 1.000 TL
392 2023 Motorsiklet Benellı 125S Kocaeli 5.5.2026 15:30 TL
393 2023 Motorsiklet R250 Ankara 5.5.2026 15:30 1.000 TL
394 2012 Chevrolet CRUZE SEDAN 1.6 Ankara 5.5.2026 15:30 1.000 TL
395 2011 Chevrolet AVEO HB 1.2 Sakarya 5.5.2026 15:30 1.000 TL
396 2005 Ford FOCUS 1.6i COLLECTION SEDAN Sakarya 5.5.2026 15:30 1.000 TL
397 1995 Renault BROADWAY 1.4 Ankara 5.5.2026 15:30 1.000 TL
398 2006 Volkswagen GOLF 1.6 PRIMELINE Ankara 5.5.2026 15:30 1.000 TL
399 2000 Citroen XSARA 1.6İ Mersin 5.5.2026 15:30 1.000 TL
400 2022 Renault MEGANE SEDAN 1.3 TCE İstanbul 5.5.2026 15:30 1.000 TL
401 2000 Peugeot 206 XR 1.4 Ankara 5.5.2026 15:30 1.000 TL
402 2004 Fiat/Tofaş DOBLO 1.9 JTD Bolu 5.5.2026 15:30 1.000 TL
403 2002 Ford FOCUS 1.6İ COMFORT HB Manisa 5.5.2026 15:30 1.000 TL
404 2018 Dacia DOKKER COMBI 1.5 DCI Ankara 5.5.2026 15:30 1.000 TL
405 2025 Opel CORSA 1.2 100 Şehir Seç 5.5.2026 15:30 1.000 TL
406 2021 Audi A3 SEDAN Antalya 5.5.2026 15:30 1.000 TL
407 2005 Fiat/Tofaş DOBLO 1.9 JTD Kayseri 5.5.2026 15:30 1.000 TL
408 2023 Motorsiklet BİTTER 50 İzmir 5.5.2026 15:30 1.000 TL
409 2023 Motorsiklet X MAX 250 Balıkesir 5.5.2026 15:30 1.000 TL
410 2016 Hyundai i20 1.2 MPI İstanbul 5.5.2026 15:30 1.000 TL
411 2021 Honda DIO İstanbul 5.5.2026 15:30 1.000 TL
412 2012 Renault KANGOO MULTIX EXTREME 1.5 DCI Mersin 5.5.2026 15:30 1.000 TL
413 2024 Motorsiklet 125 DUKE İstanbul 5.5.2026 15:30 1.000 TL
414 2026 Skoda KAMIQ 1.0 TSI Sakarya 5.5.2026 15:30 1.000 TL
415 2010 Peugeot 206+ COMFORT 1.4 Şehir Seç 5.5.2026 15:30 1.000 TL
416 2020 Toyota COROLLA 1.6 Balıkesir 5.5.2026 15:30 1.000 TL
417 2014 Renault CLIO 1.2 Balıkesir 5.5.2026 15:30 1.000 TL
418 2024 Cupra BORN 150 KW İzmir 5.5.2026 15:30 1.000 TL
419 2023 Motorsiklet PULSAR NS200 Malatya 5.5.2026 15:30 1.000 TL
420 2022 Motorsiklet 250 DUKE Niğde 5.5.2026 15:30 1.000 TL
421 2012 Fiat/Tofaş FIORINO COMBI 1.3 M.JET Şehir Seç 5.5.2026 15:30 1.000 TL
422 2002 Opel ZAFIRA 1.6 COMFORT Eskişehir 5.5.2026 15:30 1.000 TL
423 2018 Fiat/Tofaş FIORINO CARGO 1.3 M.JET Sakarya 5.5.2026 15:30 1.000 TL
424 2011 Volkswagen CRAFTER 16+1 2.5 TDI Sakarya 5.5.2026 15:30 1.000 TL
425 2017 Fiat/Tofaş DOBLO CARGO MAXI 1.3 M.JET 90 Çorum 5.5.2026 15:30 1.000 TL
426 1994 Mercedes C 200 Trabzon 5.5.2026 15:30 1.000 TL
427 2021 Toyota COROLLA 1.5 SEDAN Şehir Seç 5.5.2026 15:30 1.000 TL
428 1991 Renault 12 TSW TOROS 5 VT Kahramanmaraş 5.5.2026 15:30 1.000 TL
429 1990 Fiat/Tofaş ŞAHİN 1.6 Ankara 5.5.2026 15:30 1.000 TL
430 1992 Bmw 520i Şehir Seç 5.5.2026 15:30 1.000 TL
431 2024 Ford TOURNEO COURIER 1.5 D 100 TREND Ankara 5.5.2026 15:30 1.000 TL
432 2025 Motorsiklet JUPITER 125 Gaziantep 5.5.2026 15:30 1.000 TL
433 2021 Peugeot 3008 1.5 BLUEHDI 130 Mardin 5.5.2026 15:30 1.000 TL
434 2025 Citroen E-C3 AIRCROSS MAX 83KW Şehir Seç 5.5.2026 15:30 1.000 TL
435 2001 Opel ASTRA 1.6 Şehir Seç 5.5.2026 15:30 1.000 TL
436 2016 Citroen C-ELYSEE 1.6 HDI İzmir 5.5.2026 15:30 1.000 TL
437 1993 Fiat/Tofaş DOGAN SLX Konya 5.5.2026 15:30 1.000 TL
438 2025 Motorsiklet BRAVO 50 Mersin 5.5.2026 15:30 1.000 TL
439 1999 Hyundai ACCENT 1.3 Balıkesir 5.5.2026 15:30 1.000 TL
440 2016 Citroen JUMPER 2.2 HDI 150 14+1 Bursa 5.5.2026 15:30 1.000 TL
441 2000 Volkswagen TRANSPORTER PANELVAN 2.5 TDI Kayseri 5.5.2026 15:30 1.000 TL
442 2017 Honda CIVIC 1.5 İzmir 5.5.2026 15:30 1.000 TL
443 2024 Honda CB 125 F İstanbul 5.5.2026 15:30 1.000 TL
444 2012 Volkswagen TIGUAN 1.4 TSI Rize 5.5.2026 15:30 1.000 TL
445 2010 Ford TRANSIT CONNECT 1.8 TDCi İzmir 5.5.2026 15:30 1.000 TL
446 2015 Volkswagen JETTA 1.6 TDI İstanbul 5.5.2026 15:30 1.000 TL
447 2015 Mercedes ATEGO 1518 C42 İstanbul 5.5.2026 15:30 1.000 TL
448 2023 Honda PCX 125 Antalya 5.5.2026 15:30 1.000 TL
449 2023 Fiat/Tofaş EGEA 1.4 FIRE Mardin 5.5.2026 15:30 1.000 TL
450 2024 Motorsiklet RAIDER 125 Düzce 5.5.2026 15:30 1.000 TL
451 2024 Ford TRANSIT VAN 2.0 Gaziantep 5.5.2026 15:30 1.000 TL
452 2015 Motorsiklet XP 500 İzmir 5.5.2026 15:30 1.000 TL
453 1998 Nissan PRIMERA 2.0 SEDAN Düzce 5.5.2026 15:30 1.000 TL
454 2011 Mercedes C 180 K 1.6 Ağrı 5.5.2026 15:30 1.000 TL
455 2015 Citroen C-ELYSEE 1.6 HDI Şehir Seç 5.5.2026 15:30 1.000 TL
456 2024 Motorsiklet JUPITER 125 Muğla 5.5.2026 15:30 1.000 TL
457 2000 Nissan PRIMERA 1.6 COMFORT SEDAN Konya 5.5.2026 15:30 1.000 TL
458 2015 Renault MASTER PANELVAN 2.3 DCİ İstanbul 5.5.2026 15:30 1.000 TL
459 2016 Opel ASTRA 1,6 Şehir Seç 5.5.2026 15:30 1.000 TL
460 2020 Mitsubishi SPACESTAR 1.2 İstanbul 5.5.2026 15:30 1.000 TL
461 2014 Citroen C-ELYSEE 1.6 HDI İzmir 5.5.2026 15:30 1.000 TL
462 2021 Citroen C-ELYSEE 1.5 BLUEHDI İstanbul 5.5.2026 15:30 1.000 TL
463 2017 Honda PCX 150 Aydın 5.5.2026 15:30 1.000 TL
464 2018 Bmw 520i 1.6 Kocaeli 5.5.2026 15:30 1.000 TL
465 1999 Toyota COROLLA 1.6 Batman 5.5.2026 15:30 1.000 TL
466 2003 Peugeot 307 XR BVA 1.6 SP Şehir Seç 5.5.2026 15:30 1.000 TL
467 2001 Fiat/Tofaş DOGAN 1.6 İ.E. Sinop 5.5.2026 15:30 1.000 TL
468 2022 Honda PCX 125 Antalya 5.5.2026 15:30 1.000 TL
469 2019 Opel INSIGNIA GRAND SPORT 1.6 DIZEL Bitlis 5.5.2026 15:30 1.000 TL
470 2016 Fiat/Tofaş EGEA 1.3 M.JET Kocaeli 5.5.2026 15:30 1.000 TL
471 2015 Fiat/Tofaş DOBLO COMBI 1.3 M.JET Ankara 5.5.2026 15:30 1.000 TL
472 1998 Renault MEGANE 2.0 RXT Konya 5.5.2026 15:30 1.000 TL
473 2010 Fiat/Tofaş DOBLO COMBI 1.3 MULTIJET İstanbul 5.5.2026 15:30 1.000 TL
474 2008 Audi A6 2.0 TDI MULTIRONIC Ordu 5.5.2026 15:30 1.000 TL
475 1993 Toyota COROLLA 1.6 İstanbul 5.5.2026 15:30 1.000 TL
476 2023 Cupra LEON 1.5 E-TSI MHEV 150 DSG Ankara 5.5.2026 15:30 1.000 TL
477 2024 Motorsiklet RR 525 İstanbul 5.5.2026 15:30 1.000 TL
478 2023 Motorsiklet JUPITER 125 Adana 5.5.2026 15:30 1.000 TL
479 2016 Opel ASTRA 1,6 Şehir Seç 5.5.2026 15:30 1.000 TL
480 2017 Renault MEGANE 1.5 DCI İstanbul 5.5.2026 15:30 1.000 TL
481 2001 Fiat/Tofaş BRAVA 1.6 SX Sakarya 5.5.2026 15:30 1.000 TL
482 2005 Renault KANGOO EXPRESS CONFORT 1.5 DCI Samsun 5.5.2026 15:30 1.000 TL
483 2021 Skoda OCTAVIA 1.0 TSI e-TEC Gaziantep 5.5.2026 15:30 1.000 TL
484 2024 Honda PCX 125 Sakarya 5.5.2026 15:30 1.000 TL
485 1991 Toyota COROLLA XL 1.6 Osmaniye 5.5.2026 15:30 1.000 TL
486 2003 Fiat/Tofaş DOBLO 1.9 JTD Şehir Seç 5.5.2026 15:30 1.000 TL
487 1995 Fiat/Tofaş TIPO SX Sakarya 5.5.2026 15:30 1.000 TL
488 2024 Motorsiklet MTN250 İstanbul 5.5.2026 15:30 1.000 TL
489 2006 Ford FOCUS 1.6 TDCi GHIA Elazığ 5.5.2026 15:30 1.000 TL
490 2024 Honda PCX 125 Gaziantep 5.5.2026 15:30 1.000 TL
491 2023 Ford PUMA 1.0 ECOBOOST Manisa 5.5.2026 15:30 1.000 TL
492 2011 Hyundai GETZ 1.5 CRDi VGT Konya 5.5.2026 15:30 1.000 TL
493 2023 Fiat/Tofaş DUCATO KURTARICI İzmir 5.5.2026 15:30 1.000 TL
494 2015 Audi A3 SPORTBACK 1.6 TDI 110 İstanbul 5.5.2026 15:30 1.000 TL
495 1997 Renault R12 TOROS Şanlıurfa 5.5.2026 15:30 1.000 TL
496 2011 Fiat/Tofaş LINEA 1.3 MULTIJET (90) Denizli 5.5.2026 15:30 1.000 TL
497 1992 Fiat/Tofaş SAHIN 1.6 Şehir Seç 5.5.2026 15:30 1.000 TL
498 2024 Motorsiklet CHİA 125 PRO Adana 5.5.2026 15:30 1.000 TL
499 2021 Motorsiklet 50 ZNU Amasya 5.5.2026 15:30 1.000 TL
500 2016 Toyota COROLLA 1.6 MULTIDRIVE S Balıkesir 5.5.2026 15:30 1.000 TL
501 1993 Fiat/Tofaş KARTAL 1.6 Bursa 5.5.2026 15:30 1.000 TL
502 2023 Fiat/Tofaş EGEA SEDAN 1.4 FIRE 95 İzmir 5.5.2026 15:30 1.000 TL
503 2024 Motorsiklet 450 SR Eskişehir 5.5.2026 15:30 1.000 TL
504 1992 Fiat/Tofaş TEMPRA 1.6 SX Kocaeli 5.5.2026 15:30 1.000 TL
505 2005 Volkswagen PASSAT 2.0 TDI COMFORTLINE (140) Ankara 5.5.2026 15:30 1.000 TL
506 2022 Motorsiklet TURISMO 50 Bursa 5.5.2026 15:30 1.000 TL
507 2015 Volkswagen JETTA 1.6 TDI (105) Kayseri 5.5.2026 15:30 1.000 TL
508 2021 Volkswagen GOLF 1.0 eTSI Ankara 5.5.2026 15:30 1.000 TL
509 1999 Hyundai ACCENT 1.5 Ankara 5.5.2026 15:30 1.000 TL
510 1984 Fiat/Tofaş ŞAHİN 1.6 Ordu 5.5.2026 15:30 1.000 TL
511 2004 Honda CİVİC 1.6 Çorum 5.5.2026 15:30 1.000 TL
512 2001 Bmw 520 İA İzmir 5.5.2026 15:30 1.000 TL
513 2013 Volkswagen POLO 1.2 TDI (75) TRENDLINE Ankara 5.5.2026 15:30 1.000 TL
514 2011 Opel ASTRA 1.4 Kocaeli 5.5.2026 15:30 1.000 TL
515 2008 Ford T. CONNECT K210 S 1.8 TDCi Antalya 5.5.2026 15:30 1.000 TL
516 2025 Renault CLİO 1.0 TCE 100 İzmir 5.5.2026 15:30 1.000 TL
517 2014 Renault SYMBOL 1.5 DCİ Isparta 5.5.2026 15:30 1.000 TL
518 2021 Opel COMBO CARGO 1.5 D Ankara 5.5.2026 15:30 1.000 TL
519 2017 Peugeot 301 1.6 HDI Şanlıurfa 5.5.2026 15:30 1.000 TL
520 2024 Motorsiklet JUPITER 125 Antalya 5.5.2026 15:30 1.000 TL
521 2021 Motorsiklet RM5 X Antalya 5.5.2026 15:30 1.000 TL
522 2014 Volkswagen POLO 1.4 Ağrı 5.5.2026 15:30 1.000 TL
523 2017 Motorsiklet BEVERLY İstanbul 5.5.2026 15:30 1.000 TL
524 2019 Fiat/Tofaş EGEA SEDAN 1.3 M.JET Antalya 5.5.2026 15:30 1.000 TL
525 2023 Dacia DUSTER 1.3 TCE Mardin 5.5.2026 15:30 1.000 TL
526 2023 Ford TRANSİT KAMYONET Van 5.5.2026 15:30 1.000 TL
527 2004 Dacia SOLENZA 1,4 SCALA Batman 5.5.2026 15:30 1.000 TL
528 2004 Scania R 124 Sakarya 5.5.2026 15:30 1.000 TL
529 2023 Peugeot EXPERT TRAVELLER 2.0 BLUEHDI Hatay 5.5.2026 15:30 1.000 TL
530 2015 Motorsiklet YAMAHA TMAX 530 İzmir 5.5.2026 15:30 1.000 TL
531 2023 Motorsiklet BAJAJ PULSAR RS200 Malatya 5.5.2026 15:30 1.000 TL
532 2006 Citroen BERLINGO 2,0 Karaman 5.5.2026 15:30 1.000 TL
533 2017 Honda CIVIC 1.5 Balıkesir 5.5.2026 15:30 1.000 TL
534 2024 Fiat/Tofaş EGEA SEDAN EASY 1.4 FIRE 95 İstanbul 5.5.2026 15:45 614.000 TL
535 2022 Dacia SANDERO COMFORT 1.0 TURBO X-TRONIC 90 İstanbul 5.5.2026 15:45 644.000 TL
536 2015 Volkswagen POLO 1.4 TDI 90 COMFORTLINE TIPTRONIC Ankara 5.5.2026 15:45 667.500 TL
537 2016 Toyota YARIS 1.33 STYLE X-TREND MULTIDRIVE S Ankara 5.5.2026 15:45 642.000 TL
538 2015 Ford FOCUS III MCA TREND X 1.6 TDCI 95 5K Ankara 5.5.2026 15:45 675.500 TL
539 2025 Renault CLIO EVOLUTION 1.0 TCE X-TRONIC 90 Ankara 5.5.2026 15:45 733.500 TL
540 2017 Seat LEON 1.6 TDI 115 DSG S&S STYLE Ankara 5.5.2026 15:45 569.000 TL
541 2023 Dacia SANDERO STEPWAY ESSENTIAL TCE 90 CVT Ankara 5.5.2026 15:45 569.500 TL
542 2020 Dacia DUSTER COMFORT 1.5 BLUE DCI 115 4x4 Sinop 5.5.2026 15:45 554.500 TL
543 2025 Toyota PROACE CITY 1.5 D 130 DREAM A/T Ankara 5.5.2026 15:45 646.500 TL
544 2018 Peugeot 2008 ALLURE 1.6 BLUEHDI 100 OV Şanlıurfa 5.5.2026 15:45 563.000 TL
545 2011 Scania CEKICI G 420 Samsun 5.5.2026 15:45 569.000 TL
546 2024 Chery TIGGO 8 PRO MAX INTELLIGENT Ankara 5.5.2026 15:45 544.000 TL
547 2025 Togg T10F V2 Antalya 5.5.2026 15:45 618.000 TL
548 2025 Fiat/Tofaş DUCATO VAN MAXI 15M3 2.2 180 AT S2 İstanbul 5.5.2026 15:45 705.000 TL
549 2018 Toyota COROLLA 1.4 D-4D ADVANCE M/M Ankara 5.5.2026 16:00 779.000 TL
550 2020 Renault MEGANE SEDAN TOUCH 1.5 BLUEDCI 115 Ankara 5.5.2026 16:00 788.000 TL
551 2024 Peugeot e-2008 ALLURE 100KW FL Ankara 5.5.2026 16:00 1.097.000 TL
552 2017 Mercedes ACTROS 1842 Aydın 5.5.2026 16:30 820.000 TL
553 2011 Peugeot 207 5 KAPI ACTIVE 1.4 VTI (95) Osmaniye 5.5.2026 16:30 181.000 TL
554 2023 Renault TRAFIC COMBI 9+1 GRAND CONFORT 6M3 EDC 170 İstanbul 5.5.2026 16:30 715.000 TL
555 2023 Jeep RENEGADE 1.5 E-HYBRID 130 LONGITUDE İstanbul 5.5.2026 16:30 900.000 TL
556 2024 Peugeot 2008 ALLURE 1.2 PURETECH 130 EAT8 FL İstanbul 5.5.2026 16:30 300.000 TL
557 2025 Mini COOPER C 1.5 İstanbul 5.5.2026 16:30 1.525.000 TL
558 2024 Dacia SANDERO STEPWAY EXPRESSION TCE 90 CVT İstanbul 5.5.2026 16:30 630.000 TL
559 2022 Opel CORSA 1.2 100 AT8 EDITION İstanbul 5.5.2026 16:30 570.000 TL
560 2022 Bmw X2 SDRIVE18i 1.5 140 SPECIAL EDITION M SPORT X İstanbul 5.5.2026 16:30 1.075.000 TL
561 2020 Volkswagen POLO 1.0 TSI 95 COMFORTLINE DSG İstanbul 5.5.2026 16:30 840.000 TL
562 2004 Renault MEGANE 1.6 DYNAMIQUE İstanbul 5.5.2026 16:30 200.000 TL
563 2017 Renault SYMBOL JOY 1.5 DCI 90 İstanbul 5.5.2026 16:30 510.000 TL
564 2023 Renault CEKICI T 520 HIGHCAB 4X2 T E6 RET ADR (EVO) İstanbul 5.5.2026 16:30 2.099.000 TL
565 2024 Citroen C3 FEEL BUSINESS 1.2 PURETECH 110 EAT6 İstanbul 5.5.2026 16:30 700.000 TL
566 2019 Dacia DUSTER 1,6 İstanbul 5.5.2026 16:30 570.000 TL
567 2016 Volkswagen POLO 1.4 TDI 90 COMFORTLINE TIPTRONIC İstanbul 5.5.2026 16:30 465.000 TL
568 2025 Ford TOURNEO COURIER 1.5 D 100 DELUXE İstanbul 5.5.2026 16:30 620.000 TL
569 2004 Volkswagen POLO 1.4 COMFORTLINE 4 KAPI (75) İstanbul 5.5.2026 16:30 150.000 TL
570 2012 Alfa Romeo GIULETTA 1.6 JTD 105 DISTINCTIVE İstanbul 5.5.2026 16:30 310.000 TL
571 2011 Kia CEED 1.6 CRDI VGT (90) COOL 5 İstanbul 5.5.2026 16:30 340.000 TL
572 2001 Fiat/Tofaş DOBLO 1.9D Kastamonu 5.5.2026 16:30 33.250 TL
573 2019 Fiat/Tofaş EGEA SEDAN URBAN PLUS 1.3 M.JET 95 E6D Bartın 5.5.2026 16:30 231.500 TL
574 2012 Renault CLIO GRAND TOUR 1.2 İzmir 5.5.2026 16:30 162.500 TL
575 2018 Honda CIVIC SEDAN RS 1.5 182 OV Antalya 5.5.2026 16:30 821.000 TL
576 2017 Opel ASTRA NB 1.6 DIZEL 136 AT İstanbul 5.5.2026 16:30 505.000 TL
577 2015 Audi A4 2.0 TDI 150 MULTITRONIC PI Antalya 5.5.2026 16:30 901.250 TL
578 2023 Skoda SCALA 1.0 TSI 110 DSG ELITE İstanbul 5.5.2026 16:30 769.250 TL
579 2023 Renault MEGANE SEDAN TOUCH 1.3 TCE EDC 140 FAZ2 Malatya 5.5.2026 16:30 679.250 TL
580 2023 Citroen C-ELYSEE 1.5 FEEL 1.5 BLUEHDI 100 S&S Bursa 5.5.2026 16:30 452.500 TL
581 2009 Volkswagen GOLF VI 1.4 TSI TRENDLINE İstanbul 5.5.2026 16:30 445.250 TL
582 2010 Fiat/Tofaş LINEA 1.3 MULTIJET ACTIVE PLUS (90) İstanbul 5.5.2026 16:30 219.250 TL
583 2019 Citroen C-ELYSEE SHINE 1.5 BLUEHDI 100 Hatay 5.5.2026 16:30 169.250 TL
584 2006 Tata INDIGO 1.4 TREND Gaziantep 5.5.2026 16:30 1.000 TL
585 2018 Motorsiklet HONDA CB125F Ankara 5.5.2026 16:30 1.000 TL
586 2005 Ford FIESTA 1.4 TDCi COMFORT ASM Ankara 5.5.2026 16:30 60.000 TL
587 2005 Ford FOCUS 1.6i COLLECTION HB Ankara 5.5.2026 16:30 500 TL
588 2025 Peugeot 2008 ALLURE 1.2 PURETECH 130 EAT8 FL İstanbul 5.5.2026 16:30 740.000 TL
589 2012 Ford TRANSIT 330S TEK KABIN K.NET 125 E4 GP Ankara 5.5.2026 16:30 2.000 TL
590 2024 Nissan QASHQAI 1.3 DIG-T 158 CVT SKYPACK Ankara 5.5.2026 16:30 538.000 TL
591 2018 Mercedes AROCS 1842 LS UK E6 Aksaray 5.5.2026 16:30 601.000 TL
592 2019 Volkswagen CADDY 2.0 TDI SCR BMT 102 TRENDLINE DSG İstanbul 5.5.2026 16:30 435.500 TL
593 2010 Fiat/Tofaş ALBEA SOLE 1.3 MULTIJET DYNAMIC İstanbul 5.5.2026 16:30 70.500 TL
594 2025 Bmw 520i SEDAN Ankara 5.5.2026 16:30 2.751.000 TL
595 2012 Renault SYMBOL COLLECTION 1.2 (75) Ankara 5.5.2026 16:30 145.500 TL
596 2016 Volkswagen POLO 1.2 TSI BMT 90 COMFORTLINE TIPTRONIC Ankara 5.5.2026 16:30 300.500 TL
597 2012 Honda JAZZ 1.4 FUN+ CVT İstanbul 5.5.2026 16:30 300.000 TL
598 2011 Hyundai ACCENT ERA 1.4 TEAM İstanbul 5.5.2026 16:30 500 TL
599 2018 Mercedes B 180 D 1.5 AMG İstanbul 5.5.2026 16:30 1.000 TL
600 2016 Motorsiklet HONDA PCX 150 İstanbul 5.5.2026 16:30 500 TL
601 2021 Mitsubishi L200 CIFT KABIN KAMYONET 2.2 4X2 TORNADO AT Gaziantep 5.5.2026 16:30 1.000 TL
602 2025 Togg T10X V2 RWD UZUN MENZIL 160 KW Diyarbakır 5.5.2026 16:30 500 TL
603 2023 Cupra LEON 1.5 E-TSI MHEV 150 DSG İstanbul 5.5.2026 16:30 200.000 TL
604 1999 Opel CORSA 1.4 GLS İstanbul 5.5.2026 16:30 500 TL
605 2024 Motorsiklet MOTOLUX CEO110 İstanbul 5.5.2026 16:30 500 TL
606 2022 Motorsiklet RKS TNT202 Rize 5.5.2026 16:30 500 TL
607 2025 Isuzu D-MAX CIFT KABIN KAMYONET 1.9 V-LIFE İstanbul 5.5.2026 16:30 500 TL
608 1990 Ford TAUNUS 1.6 SEDAN Kastamonu 5.5.2026 16:30 500 TL
609 2008 Peugeot PARTNER 1.9 D COMBI Tekirdağ 5.5.2026 16:30 1.000 TL
610 2006 Renault CLIO 1.2 16V AUTHENTIQE 5 KAPI İstanbul 5.5.2026 16:30 500 TL
611 2025 Motorsiklet RUTEC EASY Edirne 5.5.2026 16:30 500 TL
612 2023 Iveco DAILY KAMYONET 35 C 16 4100 İstanbul 5.5.2026 16:30 1.000 TL
613 1992 Fiat/Tofaş TEMPRA SX Tekirdağ 5.5.2026 16:30 500 TL
614 1996 Renault 19 EUROPA 1.6 HB Zonguldak 5.5.2026 16:30 500 TL
615 2004 Ford FOCUS 1.6I COLLECTION HB İstanbul 5.5.2026 16:30 500 TL
616 2010 Fiat/Tofaş PALIO SOLE 5K PREMIO 1.4 FIRE (77) İstanbul 5.5.2026 16:30 500 TL
617 1998 Renault EUROPA 1.6 Tekirdağ 5.5.2026 16:30 500 TL
618 2001 Fiat/Tofaş SIENA 1.6 HL Gaziantep 5.5.2026 16:30 500 TL
619 1992 Fiat/Tofaş DOGAN 1.6 SLX Samsun 5.5.2026 16:30 500 TL
620 2024 Kia EV3 204 AT ELEKTRIK PRESTIGE LONG RANGE İstanbul 5.5.2026 16:30 500 TL
621 2017 Motorsiklet DUCATI SUPER SPORT S İstanbul 5.5.2026 16:30 500 TL
622 2000 Peugeot 306 PLATINUM 1.6 5 KAPI İstanbul 5.5.2026 16:30 500 TL
623 2025 Motorsiklet VOLTA VS2 Ankara 5.5.2026 16:30 500 TL
624 2018 Motorsiklet MOTOLUX ROSSI 50 CC SCOOTER Balıkesir 5.5.2026 16:30 500 TL
625 2023 Motorsiklet NEW LIGHT PRO 125 Aydın 5.5.2026 16:30 1.000 TL
626 1993 Fiat/Tofaş KARTAL Isparta 5.5.2026 16:30 1.000 TL
627 2022 Volkswagen PASSAT 1.5 TSI İstanbul 5.5.2026 16:30 1.000 TL
628 2025 Chery TIGGO 7 1.6 T-GDI Karaman 5.5.2026 16:30 1.000 TL
629 2023 Motorsiklet RAIDER 125 Trabzon 5.5.2026 16:30 1.000 TL
630 1990 Fiat/Tofaş DOGAN L İzmir 5.5.2026 16:30 1.000 TL
631 2004 Ford T. CONNECT KOMBI K 230 L 1.8 TDCİ İstanbul 5.5.2026 16:30 1.000 TL
632 2022 Fiat/Tofaş DOBLO COMBI 1.6 M.JET Adana 5.5.2026 16:30 1.000 TL
633 2015 Isuzu NPR 10 KAMYON İzmir 5.5.2026 16:30 1.000 TL
634 2014 Ford TOURNEO COURIER KOMBI 1.5 TDCI İstanbul 5.5.2026 16:30 1.000 TL
635 2016 Ford TOURNEO COURIER 1.6 TDCI Antalya 5.5.2026 16:30 1.000 TL
636 2017 Renault MEGANE SEDAN 1.5 DCI Ankara 6.5.2026 15:15 1.000 TL
637 2015 Nissan QASHQAI 1.6 DCI Tekirdağ 6.5.2026 15:15 1.500 TL
638 2021 Skoda OCTAVIA 1.0 e-TEC Düzce 6.5.2026 15:15 1.000 TL
639 2024 Volkswagen T-ROC 1.5 TSI Edirne 6.5.2026 15:15 1.000 TL
640 2025 Dacia SANDERO STEPWAY 1.0 TCE İzmir 6.5.2026 15:15 1.000 TL
641 2014 Citroen C-ELYSEE 1.6 HDI Adana 6.5.2026 15:15 1.000 TL
642 2013 Ford T.CONNECT KOMBI K210S 1.8 TDCI Aksaray 6.5.2026 15:15 1.000 TL
643 2019 Dacia DUSTER 1.6 ECO-G Bursa 6.5.2026 15:15 1.000 TL
644 2019 Fiat/Tofaş EGEA EASY 1.4 FIRE İstanbul 6.5.2026 15:15 1.000 TL
645 2026 Toyota C-HR 1.8 HYBRID Gaziantep 6.5.2026 15:15 2.000 TL
646 2016 Volvo S90 2.0 D5 INSCRIPTION Ankara 6.5.2026 15:15 1.000 TL
647 2017 Honda CIVIC SEDAN 1.6i VTEC Malatya 6.5.2026 15:15 136.900 TL
648 2020 Fiat/Tofaş DOBLO COMBI 1.6 M.JET Tekirdağ 6.5.2026 15:15 60.000 TL
649 2022 Renault EXPRESS COMBI 1.5 BLUEDCİ İzmir 6.5.2026 15:15 1.000 TL
650 2023 Mercedes EQB 250+ Kayseri 6.5.2026 15:15 679.900 TL
651 2023 Audi A3 SEDAN 35 TFSI Ankara 6.5.2026 15:15 1.000 TL
652 2012 Ford T. CONNECT KOMBI GLX K210 S 1.8 TDCI Kayseri 6.5.2026 15:15 266.000 TL
653 2008 Suzuki SWIFT 1.5 Trabzon 6.5.2026 15:15 10.000 TL
654 2022 Renault CLIO JOY 1.0 TCE İstanbul 6.5.2026 15:15 100.000 TL
655 2015 Bmw 320i ED SEDAN İstanbul 6.5.2026 15:15 101.500 TL
656 2013 Fiat/Tofaş DOBLO COMBI 1.3 M.JET Antalya 6.5.2026 15:15 3.800 TL
657 2011 Bmw 116i Çanakkale 6.5.2026 15:15 380.500 TL
658 2020 Renault CLIO 1.3 TCE İstanbul 6.5.2026 15:15 1.000 TL
659 2020 Volkswagen T-ROC 1.5 TSI Ankara 6.5.2026 15:15 500 TL
660 2014 Fiat/Tofaş 500L 1.3 MULTIJET İstanbul 6.5.2026 15:15 334.500 TL
661 2016 Dacia SANDERO STEPWAY 1.5 DCI Mersin 6.5.2026 15:15 1.000 TL
662 2024 Renault KANGOO MULTIX 1.3 TCE Bursa 6.5.2026 15:15 100.000 TL
663 2012 Fiat/Tofaş DUCATO MINIBUS 16+1 İstanbul 6.5.2026 15:15 36.000 TL
664 2023 Motorsiklet BAJAJ PULSAR RS 200 İstanbul 6.5.2026 15:30 1.000 TL
665 2006 Ford KAMYON CARGO 3230S Hatay 6.5.2026 15:30 1.000 TL
666 1996 Renault R 1339 Konya 6.5.2026 15:30 1.000 TL
667 2023 Fiat/Tofaş EGEA CROSS 1.4 FIRE Ankara 6.5.2026 15:30 1.000 TL
668 2025 Skoda SUPERB 1.5 TSI MHEV Ankara 6.5.2026 15:30 1.000 TL
669 2023 Renault MEGANE SEDAN 1.3 TCE Kocaeli 6.5.2026 15:30 1.000 TL
670 2018 Fiat/Tofaş FIORINO COMBI POP 1.3 M.JET İstanbul 6.5.2026 15:30 1.000 TL
671 2000 Fiat/Tofaş PALIO 1.4 EL Kayseri 6.5.2026 15:30 1.000 TL
672 2015 Honda HONDA SCR 110 Muğla 6.5.2026 15:30 1.000 TL
673 2016 Renault SYMBOL JOY 1.5 DCI 90 İstanbul 6.5.2026 15:30 1.000 TL
674 2004 Fiat/Tofaş PALIO VAN 1.3 MULTIJET İzmir 6.5.2026 15:30 1.000 TL
675 2022 Honda HONDA NSC 110 Bursa 6.5.2026 15:30 1.000 TL
676 2024 Motorsiklet RKS 125 R İstanbul 6.5.2026 15:30 1.000 TL
677 2016 Dacia SANDERO STEPWAY 1.5 DCI İzmir 6.5.2026 15:30 1.000 TL
678 1994 Renault BROADWAY 1.4 Düzce 6.5.2026 15:30 1.000 TL
679 2007 Hyundai ACCENT ERA 1.4 SELECT Ankara 6.5.2026 15:30 1.000 TL
680 1999 Renault MEGANE 1.6E İstanbul 6.5.2026 15:30 1.000 TL
681 2023 Ford PUMA 1.0 ECOBOOST Sakarya 6.5.2026 15:30 1.000 TL
682 2023 Mercedes CEKICI ACTROS Kayseri 6.5.2026 15:30 1.000 TL
683 1993 Fiat/Tofaş TEMPRA 1.6 SX-A Ankara 6.5.2026 15:30 1.000 TL
684 2005 Motorsiklet YBR 125 Antalya 6.5.2026 15:30 1.000 TL
685 2014 Opel CORSA 1.3 CDTi Şehir Seç 6.5.2026 15:30 1.000 TL
686 2004 Volkswagen T.PORTER CITYVAN 2.5 TDI Antalya 6.5.2026 15:30 1.000 TL
687 2011 Renault SYMBOL EXPRESSION 1.5 DCI Rize 6.5.2026 15:30 1.000 TL
688 2012 Chevrolet CAPTIVA 2.0 D Siirt 6.5.2026 15:30 1.000 TL
689 1988 Mercedes 200 (ESKI MODEL) Sakarya 6.5.2026 15:30 1.000 TL
690 2021 Ford TRANSIT KAMYONET 350ED İstanbul 6.5.2026 15:30 1.000 TL
691 2023 Motorsiklet MATI 125 İstanbul 6.5.2026 15:30 1.000 TL
692 2024 Motorsiklet PULSAR RS 200 Eskişehir 6.5.2026 15:30 1.000 TL
693 2024 Citroen C4 X 1.2 PURETECH Şanlıurfa 6.5.2026 15:30 1.000 TL
694 2016 Ford FOCUS III MCA 1.5 TDCI Eskişehir 6.5.2026 15:30 1.000 TL
695 2018 Volkswagen PASSAT 1.4 TSI Gaziantep 6.5.2026 15:30 1.000 TL
696 1999 Toyota AVENSIS 2.0 SEDAN Şehir Seç 6.5.2026 15:30 1.000 TL
697 2024 Motorsiklet 250 SR Ankara 6.5.2026 15:30 1.000 TL
698 2020 Seat ARONA 1.0 ECOTSI Konya 6.5.2026 15:30 1.000 TL
699 2012 Hyundai ACCENT ERA 1.6 MODE Ankara 6.5.2026 15:30 1.000 TL
700 2017 Dacia DUSTER 1.5 DCI Kastamonu 6.5.2026 15:30 1.000 TL
701 2023 Dorse/Römork ADİL SERT DORSE YARI RÖMORK Osmaniye 6.5.2026 15:30 1.000 TL
702 2009 Scania CEKICI R 420 CA İzmir 6.5.2026 15:30 1.000 TL
703 2016 Ford TRANSIT CONNECT VAN İstanbul 6.5.2026 15:30 1.000 TL
704 2025 Honda PCX 125 DLX Kocaeli 6.5.2026 15:30 1.000 TL
705 1996 Mazda 323 SEDAN 1.6 DV Antalya 6.5.2026 15:30 1.000 TL
706 2022 Honda DIO 110 Tekirdağ 6.5.2026 15:30 1.000 TL
707 2000 Hyundai ACCENT 1.3 LX SEDAN Şehir Seç 6.5.2026 15:30 1.000 TL
708 2024 Bmw R 1250 GS ADVENTURE Kayseri 6.5.2026 15:30 1.000 TL
709 1995 Renault BROADWAY Denizli 6.5.2026 15:30 1.000 TL
710 2005 Opel CORSA VAN 1.3 CDTi Adana 6.5.2026 15:30 1.000 TL
711 2023 Motorsiklet RAIDER 125 Hatay 6.5.2026 15:30 1.000 TL
712 2013 Fiat/Tofaş LINEA 1.3 MULTIJET 95 Samsun 6.5.2026 15:30 1.000 TL
713 2004 Renault MEGANE II SEDAN 1.6 Kayseri 6.5.2026 15:30 1.000 TL
714 2018 Fiat/Tofaş EGEA 1.6 E-TORQ 110 Aydın 6.5.2026 15:30 1.000 TL
715 2002 Opel VECTRA Antalya 6.5.2026 15:30 1.000 TL
716 1992 Fiat/Tofaş DOĞAN 1.6 Aksaray 6.5.2026 15:30 1.000 TL
717 2024 Motorsiklet SYM JETX 125 İstanbul 6.5.2026 15:30 1.000 TL
718 2024 Motorsiklet FALCON 125 Antalya 6.5.2026 15:30 1.000 TL
719 2004 Opel VECTRA 1.6i Şanlıurfa 6.5.2026 15:30 1.000 TL
720 2013 Mercedes SPRINTER OTOBUS 416 CDI 22+1 Antalya 6.5.2026 15:30 1.000 TL
721 2026 Motorsiklet 125 DRIFT L İstanbul 6.5.2026 15:30 1.000 TL
722 1998 Ford ESCORT 1.6 CLX Konya 6.5.2026 15:30 1.000 TL
723 2007 Dorse/Römork ARITAŞ AR LNG-40 YARI RÖMORK TANKER KASA Gaziantep 6.5.2026 15:30 1.000 TL
724 2012 Fiat/Tofaş FIORINO COMBI 1.3 M.JET 75 ACTIVE Antalya 6.5.2026 15:30 1.000 TL
725 2025 Mercedes AMG CLA 45 S 4MATIC+ İstanbul 6.5.2026 15:30 1.000 TL
726 2009 Volkswagen CADDY KOMBI 1.9 TDI Kastamonu 6.5.2026 15:30 1.000 TL
727 2017 Ford TRANSIT 350 L VAN Batman 6.5.2026 15:30 1.000 TL
728 2022 Skoda SUPERB 1.5 TSI Sakarya 6.5.2026 15:30 1.000 TL
729 2019 Renault CLIO HB 0.9 TCE Şehir Seç 6.5.2026 15:30 1.000 TL
730 2016 Fiat/Tofaş FIORINO CARGO 1.3 M.JET Kayseri 6.5.2026 15:30 1.000 TL
731 2024 Renault MEGANE SEDAN 1.3 TCE Karabük 6.5.2026 15:30 1.000 TL
732 2017 Scania R 450 Bursa 6.5.2026 15:30 1.000 TL
733 2024 Benellı 125S Ankara 6.5.2026 15:30 1.000 TL
734 1997 Kia SEPHIA 1.6 L GTX Isparta 6.5.2026 15:30 1.000 TL
735 2022 Fiat/Tofaş EGEA SEDAN EASY 1.3 M.JET Antalya 6.5.2026 15:30 1.000 TL
736 2004 Fiat/Tofaş DOBLO 1.9 JTD Antalya 6.5.2026 15:30 1.000 TL
737 2025 Motorsiklet LAVINIA PRO 125 Şehir Seç 6.5.2026 15:30 1.000 TL
738 2023 Motorsiklet MAX T 150 Tekirdağ 6.5.2026 15:30 1.000 TL
739 2017 Volkswagen JETTA 1.2 TSI BMT 105 Denizli 6.5.2026 15:30 1.000 TL
740 2025 Motorsiklet JETX 125 İzmir 6.5.2026 15:30 1.000 TL
741 2011 Peugeot PARTNER TEPEE 1.6 HDI Konya 6.5.2026 15:30 1.000 TL
742 1998 Opel VECTRA 1.6 Malatya 6.5.2026 15:30 1.000 TL
743 2023 Renault MEGANE 1,3 TCE İzmir 6.5.2026 15:30 1.000 TL
744 2009 Hyundai GETZ 1.5 CRDi VGT START Kastamonu 6.5.2026 15:30 1.000 TL
745 2024 Honda SH125AD Aydın 6.5.2026 15:30 1.000 TL
746 2012 Ford FOCUS 1,6 TDCİ TİTANIUM Şehir Seç 6.5.2026 15:30 1.000 TL
747 2004 Iveco KAMYON 80 12 Denizli 6.5.2026 15:30 1.000 TL
748 1996 Renault 12 TSW Amasya 6.5.2026 15:30 1.000 TL
749 2023 Togg T10X V2 RWD UZUN MENZIL 160KW İstanbul 6.5.2026 15:30 1.000 TL
750 2023 Tesla MODEL Y LONG RANGE İstanbul 6.5.2026 15:30 1.000 TL
751 2005 Hyundai ELANTRA 1.6 Ankara 6.5.2026 15:30 1.000 TL
752 2016 Fiat/Tofaş EGEA SEDAN 1.6 E-TORQ Şanlıurfa 6.5.2026 15:30 1.000 TL
753 2013 Dorse/Römork YARI RÖMORK Konya 6.5.2026 15:30 1.000 TL
754 2024 Fiat/Tofaş EGEA 1,4 FİRE Konya 6.5.2026 15:30 1.000 TL
755 2012 Mercedes AXOR 1840 LS Mardin 6.5.2026 15:30 1.000 TL
756 2015 Ford TRANSIT KAMYONET Gaziantep 6.5.2026 15:30 1.000 TL
757 2013 Ford CARGO 1838T Diyarbakır 6.5.2026 15:30 1.000 TL
758 2011 Audi A4 2.0 TDI MULTITRONIC Konya 6.5.2026 15:30 1.000 TL
759 2011 Dacia LOGAN 1.5 DCI BLACKLINE Samsun 6.5.2026 15:30 1.000 TL
760 2014 Bmw 116i İstanbul 6.5.2026 15:30 1.000 TL
761 2020 Honda SCR 110 5WH Eskişehir 6.5.2026 15:30 1.000 TL
762 2024 Tesla MODEL Y RWD STANDART RANGE İzmir 6.5.2026 15:30 1.000 TL
763 2014 Audi A3 SPORTBACK 1.6 TDI 110 İstanbul 6.5.2026 15:30 1.000 TL
764 2011 Mercedes ACTROS 1844 LS Mardin 6.5.2026 15:30 1.000 TL
765 2012 Mercedes AXOR 1840 LS Antalya 6.5.2026 15:30 1.000 TL
766 2017 Renault MEGANE SEDAN JOY 1.5 DCI İstanbul 6.5.2026 15:30 1.000 TL
767 2010 Ford TRANSIT 300 S KOMBI Ankara 6.5.2026 15:30 1.000 TL
768 2010 Ford FIESTA TREND 1.4 TDCI Aksaray 6.5.2026 15:30 1.000 TL
769 2025 Peugeot 2008 1.2 PURETECH Aksaray 6.5.2026 15:30 1.000 TL
770 2012 Fiat/Tofaş LINEA 1.3 MULTIJET Adana 6.5.2026 15:30 1.000 TL
771 2005 Renault MEGANE WAGON AUT. 1.6 Adana 6.5.2026 15:30 1.000 TL
772 2025 Renault KANGOO VAN EQUILIBRE 1.5 BLUEDCI Adana 6.5.2026 15:30 1.000 TL
773 2024 Honda ACTİVA 125 Muğla 6.5.2026 15:30 1.000 TL
774 2020 Motorsiklet SPONTINI 110 (GST110T-14) İstanbul 6.5.2026 15:30 1.000 TL
775 2024 Renault MEGANE E-TECH İzmir 6.5.2026 15:30 1.000 TL
776 2019 Fiat/Tofaş EGEA SEDAN 1.4 FIRE 95 İzmir 6.5.2026 15:30 1.000 TL
777 2006 Fiat/Tofaş DOBLO COMBI 1.3 MULTIJET Düzce 6.5.2026 15:30 1.000 TL
778 2011 Dacia LOGAN 1.5 DCI Bursa 6.5.2026 15:30 1.000 TL
779 2024 Ford FOCUS 1.5 ECOBLUE 115 İstanbul 6.5.2026 15:30 1.000 TL
780 2024 Honda ACTIVA 125 Bolu 6.5.2026 15:30 1.000 TL
781 1999 Ford FIESTA 1.25i Şehir Seç 6.5.2026 15:30 1.000 TL
782 2007 Honda CIVIC SEDAN 1.6 Konya 6.5.2026 15:30 1.000 TL
783 2010 Volkswagen JETTA 1.6 TDI Şehir Seç 6.5.2026 15:30 1.000 TL
784 1994 Fiat/Tofaş TEMPRA S Samsun 6.5.2026 15:30 1.000 TL
785 2021 Honda DİO 110 Muğla 6.5.2026 15:30 1.000 TL
786 2025 Motorsiklet VN50 PRO İstanbul 6.5.2026 15:30 1.000 TL
787 2023 Motorsiklet VESPA GTS Şehir Seç 6.5.2026 15:30 1.000 TL
788 1996 Fiat/Tofaş DOGAN SLX Afyonkarahisar 6.5.2026 15:30 1.000 TL
789 2013 Skoda FABIA HB 1.6 TDI Mersin 6.5.2026 15:30 1.000 TL
790 2012 Motorsiklet ELITE 100 Karaman 6.5.2026 15:30 1.000 TL
791 2017 Motorsiklet X-MAX 250 Mersin 6.5.2026 15:30 1.000 TL
792 2011 Ford T. CONNECT KOMBI K210S 1.8 TDCi Şehir Seç 6.5.2026 15:30 1.000 TL
793 2025 Motorsiklet MT 25 Tekirdağ 6.5.2026 15:30 1.000 TL
794 2011 Peugeot 308 COMFORT 1.6 HDI Tokat 6.5.2026 15:30 1.000 TL
795 2022 Motorsiklet CEO 110 Şehir Seç 6.5.2026 15:30 1.000 TL
796 2012 Honda FIZY 125 İstanbul 6.5.2026 15:30 1.000 TL
797 2024 Honda CRF 1100L AFRICA TWIN Antalya 6.5.2026 15:30 1.000 TL
798 2025 Honda FORZA 250 İstanbul 6.5.2026 15:30 1.000 TL
799 2023 Peugeot PM-01 125 Balıkesir 6.5.2026 15:30 1.000 TL
800 2025 Motorsiklet AZ50 Kocaeli 6.5.2026 15:30 1.000 TL
801 2023 Motorsiklet DRGBT Gaziantep 6.5.2026 15:30 1.000 TL
802 2000 Hyundai ACCENT 1.3 LS Tokat 6.5.2026 15:30 1.000 TL
803 2023 Kia STONIC 1.4 Balıkesir 6.5.2026 15:30 1.000 TL
804 2005 Renault CLIO SEDAN 1.4 Gaziantep 6.5.2026 15:30 1.000 TL
805 2019 Motorsiklet X-MAX 250 Balıkesir 6.5.2026 15:30 1.000 TL
806 2016 Renault CLIO HB JOY 1.2 Hatay 6.5.2026 15:30 1.000 TL
807 1995 Ford ESCORT 1,6 CL Amasya 6.5.2026 15:30 1.000 TL
808 2005 Opel CORSA 1.2 TWINPORT ENJOY Gaziantep 6.5.2026 15:30 1.000 TL
809 2024 Motorsiklet AR 06 Şehir Seç 6.5.2026 15:30 1.000 TL
810 2013 Bmw 320d SEDAN Eskişehir 6.5.2026 15:30 1.000 TL
811 2010 Fiat/Tofaş LINEA 1.3 MULTIJET Kayseri 6.5.2026 15:30 1.000 TL
812 2009 Renault SYMBOL 1.4 75 Uşak 6.5.2026 15:30 1.000 TL
813 2017 Fiat/Tofaş EGEA 1.6 M.JET 120 İstanbul 6.5.2026 15:30 1.000 TL
814 2023 Fiat/Tofaş EGEA SEDAN 1.6 M.JET 130 DCT Kocaeli 6.5.2026 15:30 1.000 TL
815 2009 Renault KANGOO MULTIX 1.5 DCI Uşak 6.5.2026 15:30 1.000 TL
816 2025 Peugeot RIFTER 1.5 BLUEHDI ALLURE Kocaeli 6.5.2026 15:30 1.000 TL
817 2023 Chery TIGGO 8 PRO 1.6 T-GDI Kayseri 6.5.2026 15:30 1.000 TL
818 2012 Volvo S40 1.6 D Gaziantep 6.5.2026 15:30 1.000 TL
819 2023 Motorsiklet JUPITER 110 İzmir 6.5.2026 15:30 1.000 TL
820 2008 Suzuki JIMNY 1.3 Antalya 6.5.2026 15:30 1.000 TL
821 2020 Ford F-MAX Malatya 6.5.2026 15:30 1.000 TL
822 2016 Opel INSIGNIA NB 1.6 CDTI İstanbul 6.5.2026 15:30 1.000 TL
823 2008 Mercedes VİTO 111 CDI Şehir Seç 6.5.2026 15:30 1.000 TL
824 2024 Motorsiklet DELIGHT Antalya 6.5.2026 15:30 1.000 TL
825 2012 Volkswagen PASSAT 2.0 TDI BMT Samsun 6.5.2026 15:30 1.000 TL
826 2013 Ford FIESTA TREND 1.25i Ankara 6.5.2026 15:30 1.000 TL
827 2016 Dacia SANDERO STEPWAY 1.5 DCI İstanbul 6.5.2026 15:30 1.000 TL
828 2009 Fiat/Tofaş 500 LOUNGE 1.4 Tekirdağ 6.5.2026 15:30 1.000 TL
829 2025 Dacia SANDERO STEPWAY EXPRESSION TCE 90 CVT Nevşehir 6.5.2026 15:30 1.000 TL
830 2019 Ford TRANSIT KAMYONET İzmir 6.5.2026 15:30 1.000 TL
831 2025 Peugeot 2008 1.2 PURETECH Bursa 6.5.2026 15:30 1.000 TL
832 2014 Seat IBIZA 1.4 Manisa 6.5.2026 15:30 1.000 TL
833 2011 Renault MASTER PANELVAN Sakarya 6.5.2026 15:30 1.000 TL
834 2006 Ford FOCUS 1.6 TDCi İzmir 6.5.2026 15:30 1.000 TL
835 2023 Motorsiklet RS 660 Karaman 6.5.2026 15:30 1.000 TL
836 2021 Volkswagen POLO 1.0 TSI Sakarya 6.5.2026 15:30 1.000 TL
837 2004 Hyundai GETZ 1.3 GLS Kayseri 6.5.2026 15:30 1.000 TL
838 2022 Bmw 320i İstanbul 6.5.2026 15:30 1.000 TL
839 2017 Skoda KODIAQ 1.4 TSI Ankara 6.5.2026 15:30 1.000 TL
840 2020 Renault CLIO JOY 1.0 TCE X-TRONIC İstanbul 6.5.2026 15:30 1.000 TL
841 2020 Toyota COROLLA 1.8 HYBRID Edirne 6.5.2026 15:30 1.000 TL
842 2014 Renault CLIO 90 Balıkesir 6.5.2026 15:30 1.000 TL
843 2017 Hyundai TUCSON 1.6 T-GDI İstanbul 6.5.2026 15:30 1.000 TL
844 2020 Bmw 216d Gaziantep 6.5.2026 15:30 1.000 TL
845 2006 Peugeot 206 1.4 Konya 6.5.2026 15:30 1.000 TL
846 1991 Fiat/Tofaş ŞAHİN 1.6 Kayseri 6.5.2026 15:30 1.000 TL
847 2024 Volkswagen CRAFTER MINIBUS Antalya 6.5.2026 15:30 1.000 TL
848 2021 Honda PCX 125 İstanbul 6.5.2026 15:30 1.000 TL
849 2024 Honda FORZA 250 İstanbul 6.5.2026 15:30 1.000 TL
850 2018 Honda CIVIC SEDAN 1.6 (125) OV İzmir 6.5.2026 15:30 1.000 TL
851 1992 Renault R9 SPRING 1.4 İzmir 6.5.2026 15:30 1.000 TL
852 2024 Motorsiklet BLUEBIRD 50 Antalya 6.5.2026 15:30 1.000 TL
853 2018 Mercedes VITO TOURER 111 CDI Ankara 6.5.2026 15:30 1.000 TL
854 2000 Renault CLIO 1.6i RTE OV Antalya 6.5.2026 15:30 1.000 TL
855 2025 Dorse/Römork Schmitz Cargobull FRİGOFRİK YARI RÖMORK Antalya 6.5.2026 15:30 TL
856 2023 Peugeot DJANGO 125 İzmir 6.5.2026 15:30 1.000 TL
857 2015 Volkswagen JETTA 1.6 TDI Iğdır 6.5.2026 15:30 1.000 TL
858 2024 Motorsiklet PULSAR RS 200 Batman 6.5.2026 15:30 1.000 TL
859 2012 Ford FIESTA 1.4 Şanlıurfa 6.5.2026 15:30 1.000 TL
860 2011 Daf CEKICI FT 105 XF 460 4x2 Ankara 6.5.2026 15:30 1.000 TL
861 2012 Ford FIESTA 1.4 Şanlıurfa 6.5.2026 15:30 1.000 TL
862 2024 Motorsiklet PULSAR RS 200 Batman 6.5.2026 15:30 1.000 TL
863 2015 Volkswagen JETTA 1.6 TDI Iğdır 6.5.2026 15:30 1.000 TL
864 2025 Dorse/Römork Schmitz Cargobull FRİGOFRİK YARI RÖMORK Antalya 6.5.2026 15:30 TL
865 2000 Renault CLIO 1.6i RTE OV Antalya 6.5.2026 15:30 1.000 TL
866 2023 Peugeot DJANGO 125 İzmir 6.5.2026 15:30 1.000 TL
867 2011 Daf CEKICI FT 105 XF 460 4x2 Ankara 6.5.2026 15:30 1.000 TL
868 2016 Peugeot 301 1.6 HDI İstanbul 6.5.2026 15:30 1.000 TL
869 2023 Honda DIO Aydın 6.5.2026 15:30 1.000 TL
870 2001 Renault MEGANE 1,6 RTE İzmir 6.5.2026 15:30 1.000 TL
871 2011 Renault CLIO HB Adana 6.5.2026 15:30 1.000 TL
872 2015 Volvo S60 1.6 D2 Şanlıurfa 6.5.2026 15:30 1.000 TL
873 2009 Renault KOLEOS 2.0 DCI (150) PRİV. Ankara 6.5.2026 15:30 1.000 TL
874 2025 Motorsiklet RSX5 150 Ankara 6.5.2026 15:30 1.000 TL
875 2024 Motorsiklet TK 03 İstanbul 6.5.2026 15:30 1.000 TL
876 1990 Fiat/Tofaş 124 Serçe İstanbul 6.5.2026 15:30 1.000 TL
877 2024 Opel COMBO 1.5 DIZEL Kayseri 6.5.2026 15:30 1.000 TL
878 2023 Ford TRANSIT 350M CIFT KABIN KAMYONET Ordu 6.5.2026 15:30 1.000 TL
879 2022 Skoda SUPERB 1.5 TSI Adana 6.5.2026 15:30 1.000 TL
880 2013 Ford FIESTA 1.4 Kayseri 6.5.2026 15:30 1.000 TL
881 2017 Honda CIVIC SEDAN 1.6İ VTEC Ankara 6.5.2026 15:30 1.000 TL
882 2015 Mercedes CEKICI AXOR 1840 LS E5 Aksaray 6.5.2026 15:30 1.000 TL
883 2006 Honda BEAT 100 Antalya 6.5.2026 15:30 1.000 TL
884 2024 Motorsiklet 250 SR İstanbul 6.5.2026 15:30 1.000 TL
885 2009 Opel ASTRA 1.3 CDTi ESSENTİA (90) İstanbul 6.5.2026 15:30 1.000 TL
886 2003 Renault MEGANE 1.9 DTI Ordu 6.5.2026 15:30 1.000 TL
887 2025 Toyota COROLLA 1.5 Mersin 6.5.2026 15:30 1.000 TL
888 2021 Fiat/Tofaş EGEA CROSS 1.4 FİRE 95 Kocaeli 6.5.2026 15:30 1.000 TL
889 1996 Hyundai ELANTRA 1.8 Samsun 6.5.2026 15:30 1.000 TL
890 2005 Hyundai ACCENT 1.3 ADMIRE Kastamonu 6.5.2026 15:30 1.000 TL
891 2006 Dacia LOGAN AMBIANCE PACK 1.4 Denizli 6.5.2026 15:30 1.000 TL
892 2022 Skoda SUPERB 1.5 TSI 150 DSG Çorum 6.5.2026 15:30 1.000 TL
893 1999 Renault BROADWAY 1.4 İstanbul 6.5.2026 15:30 1.000 TL
894 2015 Ford FİESTA 1.5 TDCI 75 İstanbul 6.5.2026 15:30 1.000 TL
895 2011 Motorsiklet 100 SFC BASIC X İzmir 6.5.2026 15:30 1.000 TL
896 1992 Fiat/Tofaş KARTAL 1.6 Aydın 6.5.2026 15:30 1.000 TL
897 2015 Volkswagen PASSAT 1.6 TDI BMT 120 DSG Şehir Seç 6.5.2026 15:30 1.000 TL
898 2022 Honda WW125A İstanbul 6.5.2026 15:30 1.000 TL
899 2025 Opel GRANDLAND 1.2 HYBRID 136 İstanbul 6.5.2026 15:30 1.000 TL
900 2004 Toyota COROLLA 1.6 SOL HB Şehir Seç 6.5.2026 15:30 1.000 TL
901 2016 Ford FOCUS 1,5 TDCİ Kahramanmaraş 6.5.2026 15:30 1.000 TL
902 2022 Motorsiklet MTN 250-A Kayseri 6.5.2026 15:30 1.000 TL
903 2012 Volkswagen POLO 1.4 Antalya 6.5.2026 15:30 1.000 TL
904 2025 Motorsiklet STRADA 125 Kayseri 6.5.2026 15:30 1.000 TL
905 2023 Motorsiklet X-MAX 250 Muğla 6.5.2026 15:30 1.000 TL
906 2011 Nissan JUKE 1.5 DCI VISIA Mersin 6.5.2026 15:30 1.000 TL
907 2008 Opel CORSA VAN 1.3 CDTi Konya 6.5.2026 15:30 1.000 TL
908 2009 Volkswagen JETTA Samsun 6.5.2026 15:30 1.000 TL
909 2024 Honda CBR 650 RA Kayseri 6.5.2026 15:30 1.000 TL
910 2001 Renault MEGANE 1.6 Konya 6.5.2026 15:30 1.000 TL
911 2005 Renault MEGANE 1,6 Şanlıurfa 6.5.2026 15:30 1.000 TL
912 2022 Hyundai i20 N 1.6 T-GDI (204) İstanbul 6.5.2026 16:30 975.000 TL
913 2025 Ford TRANSIT COURIER VAN 1.5 İstanbul 6.5.2026 16:30 500.000 TL
914 1992 Fiat/Tofaş ŞAHİN 1.6 İstanbul 6.5.2026 16:30 10.000 TL
915 2012 Volkswagen CADDY KOMBI 1.6 TDI 102 COMFORTLINE DSG İstanbul 6.5.2026 16:30 500.000 TL
916 2023 Citroen C3 SHINE 1.2 PURETECH 110 EAT6 İstanbul 6.5.2026 16:30 675.000 TL
917 2018 Bmw 418i GRAN COUPE 1.5 136 İstanbul 6.5.2026 16:30 1.125.000 TL
918 2024 Hyundai BAYON FL 1.0 T-GDI 100 ELITE DCT İstanbul 6.5.2026 16:30 870.000 TL
919 2025 Peugeot 2008 GT 1.2 PURETECH 130 EAT8 FL İstanbul 6.5.2026 16:30 1.049.000 TL
920 2015 Hyundai i20 1.2 MPI ELITE PANORAMA İstanbul 6.5.2026 16:30 450.000 TL
921 2024 Volkswagen TRANSPORTER PANELVAN 2+1 LWB 110 İstanbul 6.5.2026 16:30 700.000 TL
922 2022 Audi E-TRON GT Mersin 6.5.2026 16:30 751.000 TL
923 2018 Honda CIVIC 1.6İ VTEC Sakarya 6.5.2026 16:30 101.500 TL
924 2025 Kia SPORTAGE 1.6 Hatay 6.5.2026 16:30 5.500 TL
925 2022 Ford TRANSIT COURIER 1.5 TDCI Muğla 6.5.2026 16:30 1.000 TL
926 1995 Ford ESCORT 1.6 SW Rize 6.5.2026 16:30 1.000 TL
927 2011 Mercedes AXOR 1840 LS Mersin 6.5.2026 16:30 51.500 TL
928 2007 Peugeot BOXER VAN Mardin 6.5.2026 16:30 1.000 TL
929 2023 Mercedes SPRINTER 2,0 18+1 Ankara 6.5.2026 16:30 250.000 TL
930 2017 Renault KADJAR 1.5 DCI Ankara 6.5.2026 16:30 1.000 TL
931 2005 Fiat/Tofaş PALIO 1.2 Bursa 6.5.2026 16:30 1.000 TL
932 2024 Motorsiklet 125 R Mersin 6.5.2026 16:30 500 TL
933 2012 Mini COUNTRYMAN 1.6 Kocaeli 6.5.2026 16:30 200.000 TL
934 2012 Toyota YARIS 1.33 STYLE MULTIDRIVE S Balıkesir 6.5.2026 16:30 240.000 TL
935 2016 Volkswagen POLO 1.4 TDI Mersin 6.5.2026 16:30 314.500 TL
936 2005 Motorsiklet ZX 6R Karaman 6.5.2026 16:30 1.000 TL
937 2020 Honda CIVIC 1.6İ VTEC Ankara 6.5.2026 16:30 100.000 TL
938 2008 Hyundai ACCENT ERA 1.4 TEAM Gaziantep 6.5.2026 16:30 1.000 TL
939 2010 Hyundai i30 CW 1.6 CRDi MODE İstanbul 6.5.2026 16:30 1.000 TL
940 2009 Fiat/Tofaş FIORINO 1.3 MULTIJET Kayseri 6.5.2026 16:30 500 TL
941 2024 Motorsiklet MP3 530 HPE Eskişehir 6.5.2026 16:30 5.000 TL
942 2016 Mercedes SPRINTER MİNÜBÜS 16+1 Bursa 6.5.2026 16:30 50.000 TL
943 2024 Hyundai İ20 1.4 MPI Ankara 6.5.2026 16:30 111.000 TL
944 2023 Motorsiklet 1290 SUPER ADVETURE S İstanbul 6.5.2026 16:30 35.000 TL
945 1991 Renault R9 SPRİNG 1.4 Mersin 6.5.2026 16:30 1.000 TL
946 2012 Renault MEGANE 1,5 DCI PRİVLAGE İstanbul 6.5.2026 16:30 100.000 TL
947 1997 Opel COMBO 1.4 KAMYONET Ankara 6.5.2026 16:30 1.000 TL
948 2004 Skoda FABIA 1.4i COMBI ELEGANCE 101 Muğla 6.5.2026 16:30 1.000 TL
949 2024 Motorsiklet SKYJET BELLINA 125 Rize 6.5.2026 16:30 1.000 TL
950 2023 Renault MEGANE SEDAN ICON 1.3 TCE EDC 140 FAZ2 İstanbul 6.5.2026 16:30 550.000 TL
951 1999 Fiat/Tofaş SIENA 1.4 EL Kastamonu 6.5.2026 16:30 45.000 TL
952 2025 Motorsiklet MONDIAL STRADA 125 Samsun 6.5.2026 16:30 1.000 TL
953 2021 Motorsiklet HONDA NT 1100 İstanbul 6.5.2026 16:30 95.000 TL
954 2022 Motorsiklet HONDA MONKEY 125 (JB03) İstanbul 6.5.2026 16:30 25.000 TL
955 2011 Mercedes AXOR 3340 K/36 6x4 Adana 6.5.2026 16:30 1.000 TL
956 2022 Dorse/Römork FRIGOFRIK TIP SO¦U. Kayseri 6.5.2026 16:30 1.000 TL
957 2024 Motorsiklet MOTOLUX CEO 125 Eskişehir 6.5.2026 16:30 1.000 TL
958 1994 Fiat/Tofaş SAHIN S Aydın 6.5.2026 16:30 1.000 TL
959 2008 Toyota COROLLA HB 1.4 D-4D PLUS LINE Aydın 6.5.2026 16:30 1.000 TL
960 2021 Motorsiklet MONDIAL 50 TT Muğla 6.5.2026 16:30 1.000 TL
961 2024 Motorsiklet KUBA NEWLIGHT 125 PRO İstanbul 6.5.2026 16:30 1.000 TL
962 2017 Audi A4 1.4 TFSI 150 DESIGN S TRONIC İstanbul 6.5.2026 16:30 605.000 TL
963 2016 Dacia LODGY LAUREATE 1.5 DCI 110 5 KISILIK Muğla 6.5.2026 16:30 35.000 TL
964 2007 Volkswagen T.PORTER C.LIVAN 2.5 TDI LWB (130) 1+1 Bursa 6.5.2026 16:30 1.000 TL
965 2009 Peugeot 207 TRENDY MP3 1.4 HDI 5K İstanbul 6.5.2026 16:30 500 TL
966 2023 Motorsiklet ARORA CG100 Amasya 6.5.2026 16:30 1.000 TL
967 2025 Renault MEGANE SEDAN ICON 1.5 BLUEDCI EDC 115 FAZ2 Kocaeli 6.5.2026 16:30 265.500 TL
968 2025 Citroen E-C3 MAX 83KW İstanbul 6.5.2026 16:30 356.000 TL
969 2009 Volkswagen JETTA 1.6 PRIMELINE (102) Ankara 6.5.2026 16:30 150.500 TL
970 2001 Opel ASTRA 1.6i 16V SEDAN ELEGANCE İstanbul 6.5.2026 16:30 150.000 TL
971 2003 Opel VECTRA 1.6 SEDAN ELEGANCE Antalya 6.5.2026 16:30 500 TL
972 2013 Renault FLUENCE JOY 1.5 DCI 110 EDC İzmir 6.5.2026 16:30 500 TL
973 2023 Motorsiklet KUBA VN50 PRO Muğla 6.5.2026 16:30 500 TL
974 2011 Toyota COROLLA SEDAN 1.6 ELEGANT OV İstanbul 6.5.2026 16:30 1.500 TL
975 2023 Motorsiklet ARORA DAZZLE 50 Kocaeli 6.5.2026 16:30 500 TL
976 2025 Opel FRONTERA-E 83 KW İstanbul 6.5.2026 16:30 2.000 TL
977 2020 Kia PICANTO COOL 1.0 (67) OV İstanbul 6.5.2026 16:30 1.000 TL
978 2021 Bmw 320İ SEDAN 1.6 170 EXECUTIVE M SPORT İstanbul 6.5.2026 16:30 5.000 TL
979 2025 Fiat/Tofaş EGEA SEDAN EASY 1.4 FIRE 95 GSR Van 6.5.2026 16:30 500 TL
980 2023 Motorsiklet APEC PS5 125 İstanbul 6.5.2026 16:30 500 TL
981 2014 Dacia DUSTER AMBIANCE 1.5 DCI 110 4X4 Şırnak 6.5.2026 16:30 500 TL
982 1998 Honda CIVIC 1.6 IES Çorum 6.5.2026 16:30 500 TL
983 2013 Motorsiklet SUZUKI BURGMAN 200 İstanbul 6.5.2026 16:30 500 TL
984 2010 Fiat/Tofaş ALBEA SOLE 1.3 MULTIJET PREMIO Tekirdağ 6.5.2026 16:30 500 TL
985 2021 Motorsiklet DUCATI MULTISTRADA V4 S İstanbul 6.5.2026 16:30 500 TL
986 2023 Chery TIGGO 7 PRO EXCELLENT İstanbul 6.5.2026 16:30 500 TL
987 2013 Motorsiklet ARORA AR 150 Malatya 6.5.2026 16:30 500 TL
988 2022 Motorsiklet RKS SNIPER Edirne 6.5.2026 16:30 500 TL
989 2006 Kia RIO 1.5 CRDI SEDAN COMFORT İstanbul 6.5.2026 16:30 90.000 TL
990 2001 Hyundai ACCENT 1.3 LX (Y) Edirne 6.5.2026 16:30 500 TL
991 2024 Motorsiklet KANUNI MATI 125 Kütahya 6.5.2026 16:30 500 TL
992 2007 Renault MEGANE II HB AUTHENTIQUE 1.5 DCI İstanbul 6.5.2026 16:30 1.000 TL
993 2014 Volkswagen CADDY COMBI 1.6 TDI TEAM İstanbul 6.5.2026 16:30 500 TL
994 2012 Volkswagen CADDY KOMBI 1.6 TDI Antalya 6.5.2026 16:30 5.500 TL
995 2001 Opel ASTRA 1.6 Samsun 6.5.2026 16:30 1.500 TL
996 2010 Peugeot BIPPER KOMBI 1.4 HDI Çankırı 6.5.2026 16:30 1.000 TL
997 2000 Fiat/Tofaş BRAVO 1.6 SX Antalya 6.5.2026 16:30 1.000 TL
998 2010 Chevrolet CRUZE 1.6 İstanbul 6.5.2026 16:30 1.000 TL
999 2012 Audi A3 SPORTBACK 1.6 TDI Isparta 6.5.2026 16:30 4.500 TL
1000 2024 Honda PCX 125 İstanbul 6.5.2026 16:30 2.000 TL
1001 2024 Honda DIO Düzce 6.5.2026 16:30 1.000 TL
1002 2014 Bmw i3 Ankara 6.5.2026 16:30 3.800 TL
1003 2024 Motorsiklet SRK 125 R İstanbul 6.5.2026 16:30 1.000 TL
1004 2004 Hyundai H 100 Bursa 6.5.2026 16:30 1.000 TL
1005 2025 Motorsiklet XMAX 300 TECH MAX İstanbul 6.5.2026 16:30 23.000 TL
1006 2008 Hyundai STAREX KAMYONET 2.5 Şehir Seç 6.5.2026 16:30 500 TL
1007 2010 Dacia LOGAN MCV 1.5 DCI Sakarya 6.5.2026 16:30 1.000 TL
1008 2023 Motorsiklet R250 Antalya 6.5.2026 16:30 2.000 TL
1009 2025 Citroen E-C4 X MAX Ankara 7.5.2026 15:15 100.200 TL
1010 2024 Toyota PROACE CITY CARGO 1.5 D Balıkesir 7.5.2026 15:15 1.000 TL
1011 2019 Volkswagen CADDY 2.0 TDI İstanbul 7.5.2026 15:15 1.000 TL
1012 2023 Iveco CEKICI S-WAY Artvin 7.5.2026 15:15 50.000 TL
1013 2011 Renault CEKICI PREMIUM 430.19 T 4X2 Konya 7.5.2026 15:15 281.000 TL
1014 2017 Renault MEGANE SEDAN 1.5 DCI Hatay 7.5.2026 15:15 1.000 TL
1015 1998 Volkswagen PASSAT 1.8 BASIC Erzurum 7.5.2026 15:30 1.000 TL
1016 2024 Motorsiklet DASH 125 İzmir 7.5.2026 15:30 1.000 TL
1017 2012 Audi A4 2.0 TDI Ankara 7.5.2026 15:30 1.000 TL
1018 1992 Opel VECTRA 1.8 Ankara 7.5.2026 15:30 1.000 TL
1019 2015 Renault FLUENCE SEDAN 1.5 DCI Şanlıurfa 7.5.2026 15:30 1.000 TL
1020 1993 Fiat/Tofaş TEMPRA SX Ankara 7.5.2026 15:30 1.000 TL
1021 2001 Volkswagen BORA 1.6 Manisa 7.5.2026 15:30 1.000 TL
1022 2021 Opel CORSA 1.2 Afyonkarahisar 7.5.2026 15:30 1.000 TL
1023 2018 Honda ACTIVA S (NSC125) Antalya 7.5.2026 15:30 1.000 TL
1024 2022 Mercedes CLA 200 4MATIC 1.33 163 Hatay 7.5.2026 15:30 1.000 TL
1025 2008 Peugeot 308 COMFORT 1.6 VTI (120) Ankara 7.5.2026 15:30 1.000 TL
1026 2022 Opel COMBO 1.5 DIZEL 130 Iğdır 7.5.2026 15:30 1.000 TL
1027 2016 Motorsiklet LIFAN E-ARCEE ELEKTRİKLİ Düzce 7.5.2026 15:30 1.000 TL
1028 2023 Motorsiklet JUPİTER 125 İzmir 7.5.2026 15:30 1.000 TL
1029 2020 Honda ACTİVA S 125 Ankara 7.5.2026 15:30 1.000 TL
1030 2018 Fiat/Tofaş PRATICO 1.6 M.JET 120 Balıkesir 7.5.2026 15:30 1.000 TL
1031 1992 Fiat/Tofaş KARTAL 1.6 Zonguldak 7.5.2026 15:30 1.000 TL
1032 2021 Opel CORSA 1.2 100 İstanbul 7.5.2026 15:30 1.000 TL
1033 1992 Fiat/Tofaş TEMPRA 1.6 SX-A Çorum 7.5.2026 15:30 1.000 TL
1034 2022 Motorsiklet 100 SFC SNAPPY X Kütahya 7.5.2026 15:30 1.000 TL
1035 2026 Motorsiklet NEWCITY 50 İzmir 7.5.2026 15:30 1.000 TL
1036 2024 Motorsiklet JUPİTER 125 Gaziantep 7.5.2026 15:30 1.000 TL
1037 2004 Peugeot 206 1.4 X-LİNA Trabzon 7.5.2026 15:30 1.000 TL
1038 2024 Ford FOCUS 1.5 ECOBLUE Şanlıurfa 7.5.2026 15:30 1.000 TL
1039 2024 Skoda SUPERB 1.5 TSI MHEV Balıkesir 7.5.2026 15:30 1.000 TL
1040 2024 Peugeot 3008 1.2 HYBRID Ankara 7.5.2026 15:30 1.000 TL
1041 2017 Renault MEGANE SEDAN 1.5 DCI Şehir Seç 7.5.2026 15:30 1.000 TL
1042 1994 Ford ESCORT 1.6 Şehir Seç 7.5.2026 15:30 1.000 TL
1043 2007 Honda CITY 1.4 ELITE Aydın 7.5.2026 15:30 1.000 TL
1044 2024 Motorsiklet CAPUCCINO 125 İstanbul 7.5.2026 15:30 1.000 TL
1045 2024 Motorsiklet CITA 50 R GOLD Şehir Seç 7.5.2026 15:30 1.000 TL
1046 1998 Nissan PICK UP 2.7 CIFT KABIN Konya 7.5.2026 15:30 1.000 TL
1047 2023 Honda DIO 110. Ankara 7.5.2026 15:30 1.000 TL
1048 2024 Motorsiklet CRV 125 İstanbul 7.5.2026 15:30 1.000 TL
1049 2007 Ford T. CONNECT KOMBI K210S 1.8 TDCi Şehir Seç 7.5.2026 15:30 1.000 TL
1050 2000 Volkswagen BORA 1.6 TRENDLINE Kayseri 7.5.2026 15:30 1.000 TL
1051 2010 Opel INSIGNIA NB 1.6 EDITION Kocaeli 7.5.2026 15:30 1.000 TL
1052 2026 Hyundai BAYON 1,0 İzmir 7.5.2026 15:30 1.000 TL
1053 2004 Peugeot 307 1.4 HDI Gaziantep 7.5.2026 15:30 1.000 TL
1054 2023 Motorsiklet WİNG 50 Afyonkarahisar 7.5.2026 15:30 1.000 TL
1055 2024 Motorsiklet LCG 125 Düzce 7.5.2026 15:30 1.000 TL
1056 2015 Motorsiklet PEOPLE ONE İzmir 7.5.2026 15:30 1.000 TL
1057 2013 Ssangyong REXTON 2.0 D Bolu 7.5.2026 15:30 1.000 TL
1058 2021 Honda CIVIC SEDAN 1.6i VTEC Denizli 7.5.2026 15:30 1.000 TL
1059 2012 Ford TRANSIT CONNECT K210S 1.8 TDCi İzmir 7.5.2026 15:30 1.000 TL
1060 2012 Ford RANGER XLT 2.2 TDCI 150 OV Mersin 7.5.2026 15:30 1.000 TL
1061 2023 Fiat/Tofaş FIORINO COMBI 1,4 Çanakkale 7.5.2026 15:30 1.000 TL
1062 2004 Renault CLIO HB 1.2 İstanbul 7.5.2026 15:30 1.000 TL
1063 2017 Dacia LOGAN MCV 1.5 DCI İzmir 7.5.2026 15:30 1.000 TL
1064 2023 Motorsiklet FIDDLE 125 İstanbul 7.5.2026 15:30 1.000 TL
1065 2013 Skoda SUPERB 1.6 TDI Şehir Seç 7.5.2026 15:30 1.000 TL
1066 2009 Volkswagen CADDY KOMBI 1.9 TDI İzmir 7.5.2026 15:30 1.000 TL
1067 2017 Kia CEED 1.6 CRDI Şehir Seç 7.5.2026 15:30 1.000 TL
1068 2012 Nissan QASHQAI 1.5 DCI Şehir Seç 7.5.2026 15:30 1.000 TL
1069 2012 Kia BONGO K2500 KAMYONET İstanbul 7.5.2026 15:30 1.000 TL
1070 2010 Citroen C4 1.6 HDI İstanbul 7.5.2026 15:30 1.000 TL
1071 2004 Volkswagen PASSAT 1.9 TDI COMFORTLINE Nevşehir 7.5.2026 15:30 1.000 TL
1072 2015 Volkswagen JETTA 1.6 TDI (105) İstanbul 7.5.2026 15:30 1.000 TL
1073 2023 Honda PCX 125 Antalya 7.5.2026 15:30 1.000 TL
1074 1992 Fiat/Tofaş SAHIN 1.6 Konya 7.5.2026 15:30 1.000 TL
1075 2024 Motorsiklet RR525 Şehir Seç 7.5.2026 15:30 1.000 TL
1076 2024 Motorsiklet 250 NK İstanbul 7.5.2026 15:30 1.000 TL
1077 2024 Motorsiklet BRILLIANT 125 Şehir Seç 7.5.2026 15:30 1.000 TL
1078 2024 Citroen BERLINGO 1.5 BLUEHDI Mersin 7.5.2026 15:30 1.000 TL
1079 2022 Motorsiklet TEKKEN 125 Muğla 7.5.2026 15:30 1.000 TL
1080 2014 Honda SCR 110 Muğla 7.5.2026 15:30 1.000 TL
1081 2023 Motorsiklet A250 Şanlıurfa 7.5.2026 15:30 1.000 TL
1082 2012 Fiat/Tofaş DOBLO CARGO MAXI 1.6 M.JET Trabzon 7.5.2026 15:30 1.000 TL
1083 2023 Motorsiklet STRADA 125 Ordu 7.5.2026 15:30 1.000 TL
1084 2022 Ford TOURNEO COURIER KOMBI 1.5 TDCI 100 Ankara 7.5.2026 15:30 1.000 TL
1085 2016 Renault MEGANE SEDAN 1.5 DCI EDC 110 Elazığ 7.5.2026 15:30 1.000 TL
1086 2012 Volkswagen JETTA 1.6 TDI (105) COMFORTLINE İstanbul 7.5.2026 15:30 1.000 TL
1087 2022 Ford TOURNEO COURİER 1.5 TDCI 100 İstanbul 7.5.2026 15:30 1.000 TL
1088 2015 Toyota COROLLA 1.6 MULTIDRIVE S Şanlıurfa 7.5.2026 15:30 1.000 TL
1089 2023 Motorsiklet APX5 150 İstanbul 7.5.2026 15:30 1.000 TL
1090 2014 Volkswagen POLO 1.6 TDI (90) Nevşehir 7.5.2026 15:30 1.000 TL
1091 2005 Ford Focus 1.6i Sedan Adana 7.5.2026 15:30 1.000 TL
1092 2012 Ford FİESTA 1.4 TDCI Antalya 7.5.2026 15:30 1.000 TL
1093 2021 Motorsiklet VİSAL 125 Denizli 7.5.2026 15:30 1.000 TL
1094 2012 Citroen BERLİNGO 1.6 HDI 90 Trabzon 7.5.2026 15:30 1.000 TL
1095 2020 Fiat/Tofaş FİORİNO 1.3 MULTİJET Ankara 7.5.2026 15:30 1.000 TL
1096 2016 Nissan NAVARA 2.3 DCI 190 4X4 PLATINUM Ankara 7.5.2026 15:30 1.000 TL
1097 2013 Hyundai I20 1.2 D-CVVT Balıkesir 7.5.2026 15:30 1.000 TL
1098 2008 Ford FIESTA 1.4 TDCi Antalya 7.5.2026 15:30 1.000 TL
1099 2012 Ford T.CONNECT KOMBI K210S 1.8 TDCI Balıkesir 7.5.2026 15:30 1.000 TL
1100 2011 Volkswagen POLO 1.6 TDI (90) Balıkesir 7.5.2026 15:30 1.000 TL
1101 2020 Volkswagen PASSAT 1.6 TDI BMT 120 DSG İstanbul 7.5.2026 15:30 1.000 TL
1102 2001 Ford FOCUS 1.6 AMBIENTE Ardahan 7.5.2026 15:30 1.000 TL
1103 2025 Seat ARONA 1.0 ECOTSI 115 DSG Denizli 7.5.2026 15:30 1.000 TL
1104 2025 Renault CLIO 1.0 TCE X-TRONIC 90 Ankara 7.5.2026 15:30 1.000 TL
1105 2022 Fiat/Tofaş EGEA SEDAN EASY 1.3 M.JET 95 İzmir 7.5.2026 15:30 1.000 TL
1106 2015 Scania CEKICI R400 LA 4x2 HNA Adana 7.5.2026 15:30 1.000 TL
1107 2020 Honda CIVIC SEDAN 1.6 125 OV İstanbul 7.5.2026 15:30 1.000 TL
1108 2015 Renault CLIO HB 1.2 Bursa 7.5.2026 15:30 1.000 TL
1109 2023 Motorsiklet PULSAR RS200 Kocaeli 7.5.2026 15:30 1.000 TL
1110 2013 Volkswagen POLO 1.6 TDI COMFORTLINE (90) Hatay 7.5.2026 15:30 1.000 TL
1111 2012 Volkswagen JETTA 1.6 TDI (105) Şanlıurfa 7.5.2026 15:30 1.000 TL
1112 2002 Opel CORSA 1.2 Adıyaman 7.5.2026 15:30 1.000 TL
1113 1998 Renault BROADWAY 1.4 Şehir Seç 7.5.2026 15:30 1.000 TL
1114 1995 Renault R9 BROADWAY 1.4 Şehir Seç 7.5.2026 15:30 1.000 TL
1115 2005 Fiat/Tofaş DOBLO 1.3 MULTIJET İstanbul 7.5.2026 15:30 1.000 TL
1116 2005 Fiat/Tofaş DOBLO 1.3 MULTIJET İstanbul 7.5.2026 15:30 1.000 TL
1117 1995 Renault R9 BROADWAY 1.4 Şehir Seç 7.5.2026 15:30 1.000 TL
1118 1998 Renault BROADWAY 1.4 Şehir Seç 7.5.2026 15:30 1.000 TL
1119 2002 Opel CORSA 1.2 Adıyaman 7.5.2026 15:30 1.000 TL
1120 2017 Hyundai ACCENT BLUE 1.6 CRDI Şanlıurfa 7.5.2026 15:30 1.000 TL
1121 2024 Motorsiklet RAIDER 125 Kayseri 7.5.2026 15:30 1.000 TL
1122 2011 Volkswagen CADDY KOMBI 1.6 TDI Manisa 7.5.2026 15:30 1.000 TL
1123 2008 Ford T. CONNECT KOMBI GLX K210 S 1.8 TDCi 110 Konya 7.5.2026 15:30 1.000 TL
1124 2011 Honda CIVIC SEDAN 1.6 ELEGANCE (Y) Ankara 7.5.2026 16:30 63.000 TL
1125 2017 Fiat/Tofaş 124 SPIDER LUSSO 1.4 MULTIAIR 140 Ankara 7.5.2026 16:30 1.500 TL
1126 2025 Fiat/Tofaş EGEA CROSS LIMITED 1.6 M.JET 130DCTGSR TRAC+ İstanbul 7.5.2026 16:30 101.500 TL
1127 2020 Peugeot 308 STYLE TECH 1.5 BLUEHDI 130 EAT6 İstanbul 7.5.2026 16:30 405.000 TL
1128 2024 Citroen BERLINGO SHINE 1.5 BLUEHDI 130 EAT8 FL İstanbul 7.5.2026 16:30 12.500 TL
1129 2020 Fiat/Tofaş EGEA SEDAN EASY 1.4 FIRE 95 İstanbul 7.5.2026 16:30 151.500 TL
1130 2024 Renault CLIO EVOLUTION 1.0 TCE X-TRONIC 90 İstanbul 7.5.2026 16:30 101.000 TL
1131 2022 Fiat/Tofaş EGEA HB STREET 1.3 M.JET 95 E6D İstanbul 7.5.2026 16:30 6.000 TL
1132 2023 Toyota COROLLA 1.5 VISION MULTIDRIVE S FL Kocaeli 7.5.2026 16:30 255.000 TL
1133 2002 Peugeot PARTNER 1.9D Trabzon 7.5.2026 16:30 1.000 TL
1134 1997 Fiat/Tofaş SAHIN S Kahramanmaraş 7.5.2026 16:30 1.000 TL
1135 2025 Motorsiklet PULSAR NS 200 UG Balıkesir 7.5.2026 16:30 2.000 TL
1136 2008 Volkswagen JETTA 1.6 FSI COMFORTLINE (115) Ankara 8.5.2026 15:30 1.000 TL
1137 2016 Renault SYMBOL 1.5 DCI 90 İzmir 8.5.2026 15:30 1.000 TL
1138 2017 Ford FOCUS 1.5 TDCI 120 Batman 8.5.2026 15:30 1.000 TL
1139 1988 Fiat/Tofaş SAHIN 1.6 Kayseri 8.5.2026 15:30 1.000 TL
1140 2013 Fiat/Tofaş DOBLO COMBI 1.3 90 M.JET PREMIO BLACK Kayseri 8.5.2026 15:30 1.000 TL
1141 2015 Renault SYMBOL 1.2 16V 75 Kayseri 8.5.2026 15:30 1.000 TL
1142 2017 Citroen C-ELYSEE 1.6 HDI 92 ATTRACTION Kayseri 8.5.2026 15:30 1.000 TL
1143 2024 Ford TRAN.ICA3 350L VAN 11M3 2.0 165 UZUN TREND Ankara 8.5.2026 16:30 2.500 TL
1144 2020 Audi A3 SEDAN 1.5 35 TFSI 150 DYNAMIC STRONIC PI Ankara 8.5.2026 16:30 525.000 TL
1145 2006 Saab 9-3 VECTOR 2.0 T SEDAN Afyonkarahisar 28.7.2026 16:30 265.000 TL
Deniz Uğurlu : 0532 6657413 - Abdullah Adsay : 0506 7521791 - Metin Oktay : 0532 6717940 -  WhatsApp Hattı: 0533 2028867
Banka Hesabımız
Copyright © 2003 , TAŞKIN  UĞURLU  Hasarlı Oto Tüm hakları saklıdır.